| time (UTC) | temp F | wind direction | speed MPH | gust MPH | rain 1hr in | rain 24hr in | rain mn in | humidity % | barometer mb |
| 20260903094228 | 79 | 360 | 6.0 | 10.0 | 0.00 | 0.00 | 0.00 | 86 | 1014.1 |
| 20260903094128 | 79 | 360 | 5.0 | 10.0 | 0.00 | 0.00 | 0.00 | 86 | 1014.1 |
| 20260903094028 | 79 | 360 | 4.0 | 10.0 | 0.00 | 0.00 | 0.00 | 86 | 1014.1 |
| 20260903093950 | 79 | 360 | 4.0 | 10.0 | 0.00 | 0.00 | 0.00 | 86 | 1014.1 |
| 20260903093831 | 79 | 360 | 4.0 | 10.0 | 0.00 | 0.00 | 0.00 | 86 | 1014.2 |
| 20260903093732 | 79 | 360 | 4.0 | 10.0 | 0.00 | 0.00 | 0.00 | 86 | 1014.1 |
| 20260903093653 | 79 | 360 | 4.0 | 10.0 | 0.00 | 0.00 | 0.00 | 86 | 1014.2 |
| 20260903093533 | 79 | 360 | 5.0 | 13.0 | 0.00 | 0.00 | 0.00 | 86 | 1014.1 |
| 20260903093453 | 79 | 360 | 5.0 | 13.0 | 0.00 | 0.00 | 0.00 | 86 | 1014.1 |
| 20260903093332 | 79 | 175 | 6.0 | 13.0 | 0.00 | 0.00 | 0.00 | 86 | 1014.2 |
| 20260903093254 | 79 | 360 | 6.0 | 13.0 | 0.00 | 0.00 | 0.00 | 86 | 1014.1 |
| 20260903093133 | 79 | 360 | 6.0 | 13.0 | 0.00 | 0.00 | 0.00 | 86 | 1014.2 |
| 20260903093018 | 79 | 360 | 6.0 | 13.0 | 0.00 | 0.00 | 0.00 | 86 | 1014.2 |
| 20260903092940 | 79 | 360 | 7.0 | 13.0 | 0.00 | 0.00 | 0.00 | 86 | 1014.2 |
| 20260903092819 | 79 | 360 | 6.0 | 13.0 | 0.00 | 0.00 | 0.00 | 86 | 1014.2 |
| 20260903092719 | 79 | 360 | 6.0 | 13.0 | 0.00 | 0.00 | 0.00 | 86 | 1014.2 |
| 20260903092619 | 79 | 360 | 4.0 | 12.0 | 0.00 | 0.00 | 0.00 | 86 | 1014.2 |
| 20260903092520 | 79 | 360 | 3.0 | 11.0 | 0.00 | 0.00 | 0.00 | 86 | 1014.2 |
| 20260903092420 | 79 | 360 | 4.0 | 11.0 | 0.00 | 0.00 | 0.00 | 86 | 1014.2 |
| 20260903092325 | 79 | 360 | 5.0 | 11.0 | 0.00 | 0.00 | 0.00 | 86 | 1014.3 |
| 20260903092226 | 79 | 360 | 5.0 | 13.0 | 0.00 | 0.00 | 0.00 | 86 | 1014.3 |
| 20260903092127 | 79 | 360 | 5.0 | 13.0 | 0.00 | 0.00 | 0.00 | 86 | 1014.3 |
| 20260903092027 | 79 | 360 | 5.0 | 13.0 | 0.00 | 0.00 | 0.00 | 86 | 1014.1 |
| 20260903091947 | 79 | 360 | 5.0 | 13.0 | 0.00 | 0.00 | 0.00 | 86 | 1014.2 |
| 20260903091847 | 79 | 360 | 4.0 | 13.0 | 0.00 | 0.00 | 0.00 | 86 | 1014.2 |
| 20260903091748 | 79 | 360 | 5.0 | 13.0 | 0.00 | 0.00 | 0.00 | 86 | 1014.1 |
| 20260903091627 | 79 | 360 | 6.0 | 13.0 | 0.00 | 0.00 | 0.00 | 86 | 1014.2 |
| 20260903091532 | 79 | 360 | 6.0 | 13.0 | 0.00 | 0.00 | 0.00 | 86 | 1014.2 |
| 20260903091433 | 79 | 360 | 7.0 | 13.0 | 0.00 | 0.00 | 0.00 | 86 | 1014.2 |
| 20260903091334 | 79 | 360 | 5.0 | 13.0 | 0.00 | 0.00 | 0.00 | 86 | 1014.2 |
| 20260903091234 | 79 | 360 | 4.0 | 13.0 | 0.00 | 0.00 | 0.00 | 86 | 1014.2 |
| 20260903091135 | 79 | 360 | 5.0 | 12.0 | 0.00 | 0.00 | 0.00 | 86 | 1014.2 |
| 20260903091016 | 79 | 360 | 4.0 | 13.0 | 0.00 | 0.00 | 0.00 | 86 | 1014.2 |
| 20260903090938 | 79 | 360 | 4.0 | 13.0 | 0.00 | 0.00 | 0.00 | 86 | 1014.2 |
| 20260903090821 | 79 | 360 | 4.0 | 13.0 | 0.00 | 0.00 | 0.00 | 86 | 1014.2 |
| 20260903090723 | 79 | 360 | 4.0 | 13.0 | 0.00 | 0.00 | 0.00 | 86 | 1014.2 |
| 20260903090643 | 79 | 360 | 5.0 | 13.0 | 0.00 | 0.00 | 0.00 | 86 | 1014.2 |
| 20260903090523 | 79 | 360 | 6.0 | 13.0 | 0.00 | 0.00 | 0.00 | 86 | 1014.3 |
| 20260903090444 | 79 | 360 | 5.0 | 13.0 | 0.00 | 0.00 | 0.00 | 86 | 1014.3 |
| 20260903090324 | 79 | 360 | 6.0 | 13.0 | 0.00 | 0.00 | 0.00 | 86 | 1014.3 |
| 20260903090224 | 79 | 360 | 8.0 | 13.0 | 0.00 | 0.00 | 0.00 | 86 | 1014.2 |
| 20260903090125 | 79 | 165 | 7.0 | 13.0 | 0.00 | 0.00 | 0.00 | 86 | 1014.2 |
| 20260903090029 | 79 | 360 | 6.0 | 13.0 | 0.00 | 0.00 | 0.00 | 86 | 1014.3 |
| 20260903085930 | 79 | 360 | 5.0 | 11.0 | 0.00 | 0.00 | 0.00 | 86 | 1014.3 |
| 20260903085832 | 79 | 360 | 4.0 | 11.0 | 0.00 | 0.00 | 0.00 | 86 | 1014.3 |
| 20260903085732 | 79 | 360 | 4.0 | 11.0 | 0.00 | 0.00 | 0.00 | 86 | 1014.3 |
| 20260903085633 | 79 | 360 | 5.0 | 11.0 | 0.00 | 0.00 | 0.00 | 86 | 1014.3 |
| 20260903085534 | 79 | 170 | 5.0 | 12.0 | 0.00 | 0.00 | 0.00 | 86 | 1014.3 |
| 20260903085417 | 79 | 360 | 5.0 | 13.0 | 0.00 | 0.00 | 0.00 | 86 | 1014.3 |
| 20260903085318 | 79 | 360 | 5.0 | 13.0 | 0.00 | 0.00 | 0.00 | 86 | 1014.3 |
| 20260903085219 | 79 | 170 | 4.0 | 13.0 | 0.00 | 0.00 | 0.00 | 86 | 1014.4 |
| 20260903085139 | 79 | 360 | 4.0 | 13.0 | 0.00 | 0.00 | 0.00 | 86 | 1014.3 |
| 20260903085018 | 79 | 360 | 5.0 | 13.0 | 0.00 | 0.00 | 0.00 | 86 | 1014.2 |
| 20260903084918 | 79 | 360 | 7.0 | 13.0 | 0.00 | 0.00 | 0.00 | 86 | 1014.3 |
| 20260903084819 | 79 | 360 | 7.0 | 13.0 | 0.00 | 0.00 | 0.00 | 86 | 1014.3 |
| 20260903084739 | 79 | 360 | 6.0 | 13.0 | 0.00 | 0.00 | 0.00 | 86 | 1014.3 |
| 20260903084623 | 79 | 360 | 6.0 | 13.0 | 0.00 | 0.00 | 0.00 | 86 | 1014.3 |
| 20260903084543 | 79 | 360 | 6.0 | 14.0 | 0.00 | 0.00 | 0.00 | 86 | 1014.2 |
| 20260903084424 | 79 | 360 | 7.0 | 14.0 | 0.00 | 0.00 | 0.00 | 86 | 1014.3 |
| 20260903084323 | 79 | 360 | 7.0 | 14.0 | 0.00 | 0.00 | 0.00 | 86 | 1014.2 |
| 20260903084245 | 79 | 360 | 6.0 | 16.0 | 0.00 | 0.00 | 0.00 | 85 | 1014.3 |
| 20260903084122 | 79 | 360 | 6.0 | 16.0 | 0.00 | 0.00 | 0.00 | 85 | 1014.2 |
| 20260903084023 | 80 | 360 | 6.0 | 16.0 | 0.00 | 0.00 | 0.00 | 85 | 1014.3 |
| 20260903083943 | 80 | 360 | 7.0 | 16.0 | 0.00 | 0.00 | 0.00 | 85 | 1014.3 |
| 20260903083823 | 80 | 360 | 7.0 | 16.0 | 0.00 | 0.00 | 0.00 | 85 | 1014.3 |
| 20260903083748 | 80 | 360 | 7.0 | 16.0 | 0.00 | 0.00 | 0.00 | 85 | 1014.2 |
| 20260903083628 | 80 | 360 | 8.0 | 16.0 | 0.00 | 0.00 | 0.00 | 85 | 1014.2 |
| 20260903083528 | 80 | 360 | 8.0 | 16.0 | 0.00 | 0.00 | 0.00 | 85 | 1014.2 |
| 20260903083449 | 80 | 360 | 9.0 | 16.0 | 0.00 | 0.00 | 0.00 | 85 | 1014.2 |
| 20260903083329 | 80 | 360 | 8.0 | 16.0 | 0.00 | 0.00 | 0.00 | 85 | 1014.3 |
| 20260903083229 | 80 | 360 | 8.0 | 14.0 | 0.00 | 0.00 | 0.00 | 85 | 1014.2 |
| 20260903083126 | 80 | 360 | 7.0 | 14.0 | 0.00 | 0.00 | 0.00 | 85 | 1014.3 |
| 20260903083026 | 80 | 360 | 8.0 | 14.0 | 0.00 | 0.00 | 0.00 | 85 | 1014.2 |
| 20260903082931 | 80 | 360 | 6.0 | 14.0 | 0.00 | 0.00 | 0.00 | 85 | 1014.2 |
| 20260903082832 | 80 | 360 | 6.0 | 14.0 | 0.00 | 0.00 | 0.00 | 85 | 1014.2 |
| 20260903082752 | 80 | 360 | 5.0 | 14.0 | 0.00 | 0.00 | 0.00 | 85 | 1014.2 |
| 20260903082631 | 80 | 360 | 7.0 | 15.0 | 0.00 | 0.00 | 0.00 | 85 | 1014.2 |
| 20260903082532 | 80 | 360 | 8.0 | 15.0 | 0.00 | 0.00 | 0.00 | 85 | 1014.2 |
| 20260903082432 | 80 | 360 | 8.0 | 15.0 | 0.00 | 0.00 | 0.00 | 85 | 1014.2 |
| 20260903082333 | 80 | 360 | 8.0 | 15.0 | 0.00 | 0.00 | 0.00 | 85 | 1014.2 |
| 20260903082239 | 80 | 360 | 6.0 | 15.0 | 0.00 | 0.00 | 0.00 | 85 | 1014.2 |
| 20260903082116 | 80 | 360 | 6.0 | 16.0 | 0.00 | 0.00 | 0.00 | 85 | 1014.1 |
| 20260903082037 | 80 | 360 | 5.0 | 16.0 | 0.00 | 0.00 | 0.00 | 85 | 1014.2 |
| 20260903081916 | 80 | 360 | 7.0 | 16.0 | 0.00 | 0.00 | 0.00 | 85 | 1014.2 |
| 20260903081837 | 80 | 360 | 7.0 | 16.0 | 0.00 | 0.00 | 0.00 | 85 | 1014.2 |
| 20260903081758 | 80 | 360 | 6.0 | 20.0 | 0.00 | 0.00 | 0.00 | 85 | 1014.1 |
| 20260903081657 | 80 | 360 | 9.0 | 20.0 | 0.00 | 0.00 | 0.00 | 85 | 1014.1 |
| 20260903081554 | 80 | 360 | 10.0 | 20.0 | 0.00 | 0.00 | 0.00 | 85 | 1014.1 |
| 20260903081432 | 80 | 360 | 9.0 | 20.0 | 0.00 | 0.00 | 0.00 | 85 | 1014.1 |
| 20260903081317 | 80 | 360 | 9.0 | 20.0 | 0.00 | 0.00 | 0.00 | 85 | 1014.2 |
| 20260903081218 | 80 | 360 | 8.0 | 20.0 | 0.00 | 0.00 | 0.00 | 85 | 1014.2 |
| 20260903081118 | 80 | 360 | 8.0 | 20.0 | 0.00 | 0.00 | 0.00 | 84 | 1014.2 |
| 20260903081019 | 80 | 360 | 7.0 | 20.0 | 0.00 | 0.00 | 0.00 | 84 | 1014.2 |
| 20260903080918 | 80 | 360 | 8.0 | 20.0 | 0.00 | 0.00 | 0.00 | 84 | 1014.1 |
| 20260903080819 | 80 | 360 | 9.0 | 16.0 | 0.00 | 0.00 | 0.00 | 84 | 1014.3 |
| 20260903080721 | 80 | 360 | 10.0 | 16.0 | 0.00 | 0.00 | 0.00 | 84 | 1014.2 |
| 20260903080624 | 80 | 360 | 9.0 | 16.0 | 0.00 | 0.00 | 0.00 | 84 | 1014.2 |
| 20260903080525 | 80 | 360 | 7.0 | 15.0 | 0.00 | 0.00 | 0.00 | 84 | 1014.2 |
| 20260903080425 | 80 | 360 | 8.0 | 15.0 | 0.00 | 0.00 | 0.00 | 84 | 1014.2 |
| 20260903080325 | 80 | 360 | 7.0 | 14.0 | 0.00 | 0.00 | 0.00 | 84 | 1014.2 |
| 20260903080226 | 80 | 360 | 7.0 | 14.0 | 0.00 | 0.00 | 0.00 | 84 | 1014.2 |
| 20260903080127 | 80 | 360 | 8.0 | 14.0 | 0.00 | 0.00 | 0.00 | 84 | 1014.2 |
| 20260903080027 | 80 | 360 | 7.0 | 13.0 | 0.00 | 0.00 | 0.00 | 84 | 1014.3 |
| 20260903075931 | 80 | 360 | 8.0 | 13.0 | 0.00 | 0.00 | 0.00 | 84 | 1014.3 |
| 20260903075833 | 80 | 360 | 7.0 | 13.0 | 0.00 | 0.00 | 0.00 | 84 | 1014.2 |
| 20260903075732 | 80 | 360 | 7.0 | 13.0 | 0.00 | 0.00 | 0.00 | 84 | 1014.2 |
| 20260903075652 | 80 | 360 | 7.0 | 16.0 | 0.00 | 0.00 | 0.00 | 84 | 1014.2 |
| 20260903075531 | 80 | 360 | 7.0 | 22.0 | 0.00 | 0.00 | 0.00 | 84 | 1014.3 |
| 20260903075430 | 80 | 360 | 6.0 | 22.0 | 0.00 | 0.00 | 0.00 | 84 | 1014.2 |
| 20260903075331 | 80 | 360 | 6.0 | 22.0 | 0.00 | 0.00 | 0.00 | 84 | 1014.2 |
| 20260903075234 | 80 | 360 | 6.0 | 22.0 | 0.00 | 0.00 | 0.00 | 84 | 1014.2 |
| 20260903075135 | 80 | 360 | 7.0 | 22.0 | 0.00 | 0.00 | 0.00 | 84 | 1014.3 |
| 20260903075056 | 80 | 360 | 9.0 | 20.0 | 0.00 | 0.00 | 0.00 | 84 | 1014.3 |
| 20260903074916 | 80 | 360 | 10.0 | 20.0 | 0.00 | 0.00 | 0.00 | 83 | 1014.3 |
| 20260903074836 | 80 | 360 | 11.0 | 20.0 | 0.00 | 0.00 | 0.00 | 83 | 1014.4 |
| 20260903074717 | 80 | 360 | 9.0 | 20.0 | 0.00 | 0.00 | 0.00 | 83 | 1014.4 |
| 20260903074618 | 80 | 360 | 8.0 | 20.0 | 0.00 | 0.00 | 0.00 | 83 | 1014.4 |
| 20260903074521 | 80 | 360 | 8.0 | 20.0 | 0.00 | 0.00 | 0.00 | 83 | 1014.4 |
| 20260903074422 | 80 | 360 | 8.0 | 20.0 | 0.00 | 0.00 | 0.00 | 83 | 1014.5 |
| 20260903074323 | 80 | 360 | 9.0 | 20.0 | 0.00 | 0.00 | 0.00 | 83 | 1014.4 |
| 20260903074243 | 80 | 360 | 9.0 | 20.0 | 0.00 | 0.00 | 0.00 | 83 | 1014.5 |
| 20260903074122 | 80 | 360 | 10.0 | 20.0 | 0.00 | 0.00 | 0.00 | 83 | 1014.5 |
| 20260903074023 | 80 | 360 | 8.0 | 20.0 | 0.00 | 0.00 | 0.00 | 83 | 1014.5 |
| 20260903073924 | 80 | 360 | 7.0 | 18.0 | 0.00 | 0.00 | 0.00 | 83 | 1014.5 |
| 20260903073828 | 80 | 360 | 7.0 | 18.0 | 0.00 | 0.00 | 0.00 | 83 | 1014.5 |
| 20260903073730 | 80 | 360 | 8.0 | 18.0 | 0.00 | 0.00 | 0.00 | 83 | 1014.5 |
| 20260903073630 | 80 | 360 | 10.0 | 18.0 | 0.00 | 0.00 | 0.00 | 83 | 1014.5 |
| 20260903073531 | 80 | 360 | 10.0 | 18.0 | 0.00 | 0.00 | 0.00 | 83 | 1014.5 |
| 20260903073432 | 80 | 360 | 10.0 | 18.0 | 0.00 | 0.00 | 0.00 | 83 | 1014.5 |
| 20260903073333 | 80 | 360 | 8.0 | 15.0 | 0.00 | 0.00 | 0.00 | 82 | 1014.5 |
| 20260903073218 | 80 | 360 | 8.0 | 15.0 | 0.00 | 0.00 | 0.00 | 82 | 1014.5 |
| 20260903073139 | 80 | 360 | 8.0 | 16.0 | 0.00 | 0.00 | 0.00 | 82 | 1014.5 |
| 20260903073020 | 80 | 360 | 8.0 | 16.0 | 0.00 | 0.00 | 0.00 | 82 | 1014.5 |
| 20260903072921 | 80 | 360 | 9.0 | 16.0 | 0.00 | 0.00 | 0.00 | 82 | 1014.4 |
| 20260903072821 | 81 | 360 | 8.0 | 16.0 | 0.00 | 0.00 | 0.00 | 82 | 1014.5 |
| 20260903072721 | 81 | 360 | 7.0 | 16.0 | 0.00 | 0.00 | 0.00 | 82 | 1014.4 |
| 20260903072623 | 81 | 360 | 6.0 | 16.0 | 0.00 | 0.00 | 0.00 | 82 | 1014.4 |
| 20260903072527 | 81 | 178 | 7.0 | 16.0 | 0.00 | 0.00 | 0.00 | 82 | 1014.4 |
| 20260903072447 | 81 | 360 | 6.0 | 16.0 | 0.00 | 0.00 | 0.00 | 82 | 1014.4 |
| 20260903072328 | 81 | 360 | 7.0 | 16.0 | 0.00 | 0.00 | 0.00 | 81 | 1014.4 |
| 20260903072229 | 81 | 360 | 7.0 | 17.0 | 0.00 | 0.00 | 0.00 | 81 | 1014.4 |
| 20260903072129 | 81 | 360 | 6.0 | 18.0 | 0.00 | 0.00 | 0.00 | 81 | 1014.4 |
| 20260903072030 | 81 | 360 | 8.0 | 18.0 | 0.00 | 0.00 | 0.00 | 81 | 1014.3 |
| 20260903071931 | 81 | 360 | 9.0 | 18.0 | 0.00 | 0.00 | 0.00 | 81 | 1014.4 |
| 20260903071836 | 81 | 360 | 9.0 | 18.0 | 0.00 | 0.00 | 0.00 | 81 | 1014.4 |
| 20260903071735 | 81 | 360 | 11.0 | 18.0 | 0.00 | 0.00 | 0.00 | 81 | 1014.5 |
| 20260903071616 | 81 | 360 | 8.0 | 15.0 | 0.00 | 0.00 | 0.00 | 81 | 1014.4 |
| 20260903071518 | 81 | 360 | 8.0 | 15.0 | 0.00 | 0.00 | 0.00 | 81 | 1014.4 |
| 20260903071438 | 81 | 360 | 7.0 | 15.0 | 0.00 | 0.00 | 0.00 | 81 | 1014.4 |
| 20260903071318 | 81 | 360 | 8.0 | 15.0 | 0.00 | 0.00 | 0.00 | 80 | 1014.4 |
| 20260903071219 | 81 | 360 | 8.0 | 15.0 | 0.00 | 0.00 | 0.00 | 80 | 1014.5 |
| 20260903071124 | 81 | 360 | 8.0 | 15.0 | 0.00 | 0.00 | 0.00 | 80 | 1014.4 |
| 20260903071024 | 81 | 360 | 8.0 | 15.0 | 0.00 | 0.00 | 0.00 | 80 | 1014.4 |
| 20260903070923 | 81 | 360 | 8.0 | 15.0 | 0.00 | 0.00 | 0.00 | 80 | 1014.5 |
| 20260903070822 | 81 | 360 | 8.0 | 19.0 | 0.00 | 0.00 | 0.00 | 80 | 1014.5 |
| 20260903070722 | 81 | 360 | 8.0 | 19.0 | 0.00 | 0.00 | 0.00 | 80 | 1014.5 |
| 20260903070623 | 81 | 360 | 8.0 | 19.0 | 0.00 | 0.00 | 0.00 | 80 | 1014.5 |
| 20260903070522 | 81 | 360 | 8.0 | 19.0 | 0.00 | 0.00 | 0.00 | 80 | 1014.5 |
| 20260903070442 | 81 | 360 | 8.0 | 19.0 | 0.00 | 0.00 | 0.00 | 80 | 1014.5 |
| 20260903070402 | 81 | 161 | 8.0 | 19.0 | 0.00 | 0.00 | 0.00 | 80 | 1014.5 |
| 20260903070239 | 81 | 360 | 9.0 | 19.0 | 0.00 | 0.00 | 0.00 | 79 | 1014.5 |
| 20260903070142 | 81 | 360 | 9.0 | 19.0 | 0.00 | 0.00 | 0.00 | 79 | 1014.5 |
| 20260903070039 | 81 | 360 | 8.0 | 19.0 | 0.00 | 0.00 | 0.00 | 79 | 1014.5 |
| 20260903065937 | 81 | 360 | 8.0 | 19.0 | 0.00 | 0.00 | 0.00 | 79 | 1014.5 |
| 20260903065837 | 81 | 360 | 6.0 | 16.0 | 0.00 | 0.00 | 0.00 | 79 | 1014.5 |
| 20260903065735 | 81 | 360 | 6.0 | 16.0 | 0.00 | 0.00 | 0.00 | 79 | 1014.5 |
| 20260903065634 | 81 | 360 | 5.0 | 16.0 | 0.00 | 0.00 | 0.00 | 79 | 1014.5 |
| 20260903065532 | 81 | 360 | 7.0 | 16.0 | 0.00 | 0.00 | 0.00 | 79 | 1014.5 |
| 20260903065453 | 81 | 360 | 7.0 | 16.0 | 0.00 | 0.00 | 0.00 | 79 | 1014.5 |
| 20260903065330 | 81 | 360 | 7.0 | 16.0 | 0.00 | 0.00 | 0.00 | 79 | 1014.5 |
| 20260903065231 | 81 | 360 | 7.0 | 16.0 | 0.00 | 0.00 | 0.00 | 79 | 1014.5 |
| 20260903065116 | 81 | 360 | 7.0 | 15.0 | 0.00 | 0.00 | 0.00 | 79 | 1014.5 |
| 20260903065017 | 81 | 360 | 8.0 | 15.0 | 0.00 | 0.00 | 0.00 | 78 | 1014.6 |
| 20260903064918 | 81 | 360 | 8.0 | 15.0 | 0.00 | 0.00 | 0.00 | 78 | 1014.5 |
| 20260903064819 | 81 | 360 | 8.0 | 15.0 | 0.00 | 0.00 | 0.00 | 78 | 1014.6 |
| 20260903064719 | 81 | 360 | 8.0 | 15.0 | 0.00 | 0.00 | 0.00 | 78 | 1014.5 |
| 20260903064640 | 81 | 360 | 10.0 | 16.0 | 0.00 | 0.00 | 0.00 | 78 | 1014.5 |
| 20260903064538 | 82 | 360 | 10.0 | 20.0 | 0.00 | 0.00 | 0.00 | 78 | 1014.5 |
| 20260903064423 | 82 | 360 | 10.0 | 20.0 | 0.00 | 0.00 | 0.00 | 78 | 1014.5 |
| 20260903064323 | 82 | 360 | 10.0 | 20.0 | 0.00 | 0.00 | 0.00 | 78 | 1014.6 |
| 20260903064224 | 82 | 360 | 8.0 | 20.0 | 0.00 | 0.00 | 0.00 | 77 | 1014.6 |
| 20260903064124 | 82 | 360 | 7.0 | 20.0 | 0.00 | 0.00 | 0.00 | 77 | 1014.6 |
| 20260903064026 | 82 | 360 | 8.0 | 20.0 | 0.00 | 0.00 | 0.00 | 77 | 1014.6 |
| 20260903063925 | 82 | 360 | 10.0 | 20.0 | 0.00 | 0.00 | 0.00 | 77 | 1014.6 |
| 20260903063827 | 82 | 360 | 13.0 | 20.0 | 0.00 | 0.00 | 0.00 | 77 | 1014.6 |
| 20260903063747 | 82 | 360 | 14.0 | 20.0 | 0.00 | 0.00 | 0.00 | 77 | 1014.6 |
| 20260903063631 | 82 | 360 | 12.0 | 20.0 | 0.00 | 0.00 | 0.00 | 77 | 1014.6 |
| 20260903063531 | 82 | 360 | 10.0 | 20.0 | 0.00 | 0.00 | 0.00 | 77 | 1014.6 |
| 20260903063432 | 82 | 360 | 8.0 | 18.0 | 0.00 | 0.00 | 0.00 | 77 | 1014.6 |
| 20260903063333 | 82 | 360 | 8.0 | 18.0 | 0.00 | 0.00 | 0.00 | 77 | 1014.6 |
| 20260903063234 | 82 | 360 | 9.0 | 18.0 | 0.00 | 0.00 | 0.00 | 77 | 1014.6 |
| 20260903063135 | 82 | 360 | 9.0 | 18.0 | 0.00 | 0.00 | 0.00 | 77 | 1014.6 |
| 20260903063020 | 82 | 360 | 10.0 | 18.0 | 0.00 | 0.00 | 0.00 | 76 | 1014.6 |
| 20260903062919 | 82 | 360 | 10.0 | 18.0 | 0.00 | 0.00 | 0.00 | 76 | 1014.6 |
| 20260903062821 | 82 | 360 | 9.0 | 18.0 | 0.00 | 0.00 | 0.00 | 76 | 1014.6 |
| 20260903062721 | 82 | 360 | 10.0 | 18.0 | 0.00 | 0.00 | 0.00 | 76 | 1014.6 |
| 20260903062621 | 82 | 360 | 11.0 | 18.0 | 0.00 | 0.00 | 0.00 | 76 | 1014.6 |
| 20260903062522 | 82 | 360 | 11.0 | 18.0 | 0.00 | 0.00 | 0.00 | 76 | 1014.6 |
| 20260903062421 | 82 | 162 | 11.0 | 18.0 | 0.00 | 0.00 | 0.00 | 76 | 1014.6 |
| 20260903062326 | 82 | 360 | 9.0 | 18.0 | 0.00 | 0.00 | 0.00 | 76 | 1014.6 |
| 20260903062226 | 82 | 360 | 9.0 | 18.0 | 0.00 | 0.00 | 0.00 | 75 | 1014.6 |
| 20260903062128 | 82 | 360 | 9.0 | 18.0 | 0.00 | 0.00 | 0.00 | 75 | 1014.5 |
| 20260903062028 | 82 | 360 | 8.0 | 18.0 | 0.00 | 0.00 | 0.00 | 75 | 1014.5 |
| 20260903061949 | 82 | 360 | 7.0 | 18.0 | 0.00 | 0.00 | 0.00 | 75 | 1014.5 |
| 20260903061828 | 82 | 360 | 7.0 | 18.0 | 0.00 | 0.00 | 0.00 | 75 | 1014.6 |
| 20260903061729 | 82 | 360 | 8.0 | 18.0 | 0.00 | 0.00 | 0.00 | 75 | 1014.5 |
| 20260903061633 | 82 | 360 | 9.0 | 18.0 | 0.00 | 0.00 | 0.00 | 75 | 1014.4 |
| 20260903061553 | 82 | 360 | 10.0 | 18.0 | 0.00 | 0.00 | 0.00 | 75 | 1014.5 |
| 20260903061433 | 82 | 360 | 9.0 | 18.0 | 0.00 | 0.00 | 0.00 | 75 | 1014.5 |
| 20260903061334 | 82 | 360 | 9.0 | 18.0 | 0.00 | 0.00 | 0.00 | 75 | 1014.5 |
| 20260903061234 | 82 | 360 | 9.0 | 18.0 | 0.00 | 0.00 | 0.00 | 74 | 1014.5 |
| 20260903061134 | 82 | 360 | 10.0 | 18.0 | 0.00 | 0.00 | 0.00 | 74 | 1014.6 |
| 20260903061020 | 82 | 360 | 10.0 | 23.0 | 0.00 | 0.00 | 0.00 | 74 | 1014.5 |
| 20260903060921 | 82 | 360 | 11.0 | 23.0 | 0.00 | 0.00 | 0.00 | 74 | 1014.6 |
| 20260903060820 | 83 | 360 | 11.0 | 23.0 | 0.00 | 0.00 | 0.00 | 74 | 1014.6 |
| 20260903060741 | 83 | 360 | 9.0 | 23.0 | 0.00 | 0.00 | 0.00 | 74 | 1014.6 |
| 20260903060618 | 83 | 360 | 9.0 | 23.0 | 0.00 | 0.00 | 0.00 | 73 | 1014.7 |
| 20260903060519 | 83 | 360 | 8.0 | 23.0 | 0.00 | 0.00 | 0.00 | 73 | 1014.6 |
| 20260903060419 | 83 | 360 | 9.0 | 23.0 | 0.00 | 0.00 | 0.00 | 73 | 1014.5 |
| 20260903060320 | 83 | 360 | 10.0 | 23.0 | 0.00 | 0.00 | 0.00 | 73 | 1014.6 |
| 20260903060241 | 83 | 360 | 11.0 | 17.0 | 0.00 | 0.00 | 0.00 | 73 | 1014.6 |
| 20260903060142 | 83 | 360 | 11.0 | 17.0 | 0.00 | 0.00 | 0.00 | 73 | 1014.7 |
| 20260903060034 | 83 | 360 | 11.0 | 17.0 | 0.00 | 0.00 | 0.00 | 73 | 1014.7 |
| 20260903055934 | 83 | 360 | 11.0 | 17.0 | 0.00 | 0.00 | 0.00 | 73 | 1014.7 |
| 20260903055835 | 83 | 360 | 11.0 | 17.0 | 0.00 | 0.00 | 0.00 | 73 | 1014.7 |
| 20260903055735 | 83 | 360 | 11.0 | 22.0 | 0.00 | 0.00 | 0.00 | 73 | 1014.6 |
| 20260903055635 | 83 | 360 | 12.0 | 22.0 | 0.00 | 0.00 | 0.00 | 72 | 1014.6 |
| 20260903055535 | 83 | 360 | 11.0 | 22.0 | 0.00 | 0.00 | 0.00 | 72 | 1014.6 |
| 20260903055419 | 83 | 360 | 11.0 | 22.0 | 0.00 | 0.00 | 0.00 | 72 | 1014.7 |
| 20260903055319 | 83 | 360 | 11.0 | 22.0 | 0.00 | 0.00 | 0.00 | 73 | 1014.6 |
| 20260903055220 | 83 | 360 | 10.0 | 22.0 | 0.00 | 0.00 | 0.00 | 73 | 1014.6 |
| 20260903055119 | 83 | 360 | 10.0 | 22.0 | 0.00 | 0.00 | 0.00 | 73 | 1014.6 |
| 20260903055020 | 83 | 360 | 9.0 | 22.0 | 0.00 | 0.00 | 0.00 | 73 | 1014.6 |
| 20260903054941 | 83 | 192 | 8.0 | 22.0 | 0.00 | 0.00 | 0.00 | 73 | 1014.6 |
| 20260903054821 | 83 | 360 | 9.0 | 22.0 | 0.00 | 0.00 | 0.00 | 73 | 1014.5 |
| 20260903054725 | 83 | 360 | 8.0 | 20.0 | 0.00 | 0.00 | 0.00 | 73 | 1014.5 |
| 20260903054625 | 83 | 360 | 10.0 | 20.0 | 0.00 | 0.00 | 0.00 | 73 | 1014.5 |
| 20260903054525 | 83 | 360 | 11.0 | 20.0 | 0.00 | 0.00 | 0.00 | 73 | 1014.6 |
| 20260903054426 | 83 | 173 | 11.0 | 20.0 | 0.00 | 0.00 | 0.00 | 73 | 1014.5 |
| 20260903054327 | 83 | 360 | 10.0 | 21.0 | 0.00 | 0.00 | 0.00 | 73 | 1014.6 |
| 20260903054227 | 83 | 360 | 10.0 | 21.0 | 0.00 | 0.00 | 0.00 | 73 | 1014.6 |
| 20260903054128 | 83 | 360 | 10.0 | 21.0 | 0.00 | 0.00 | 0.00 | 73 | 1014.6 |
| 20260903054032 | 83 | 360 | 10.0 | 21.0 | 0.00 | 0.00 | 0.00 | 73 | 1014.6 |
| 20260903053933 | 83 | 360 | 11.0 | 23.0 | 0.00 | 0.00 | 0.00 | 73 | 1014.6 |
| 20260903053833 | 83 | 360 | 12.0 | 23.0 | 0.00 | 0.00 | 0.00 | 73 | 1014.6 |
| 20260903053736 | 83 | 360 | 13.0 | 23.0 | 0.00 | 0.00 | 0.00 | 73 | 1014.5 |
| 20260903053656 | 83 | 360 | 15.0 | 23.0 | 0.00 | 0.00 | 0.00 | 73 | 1014.4 |
| 20260903053517 | 83 | 360 | 13.0 | 23.0 | 0.00 | 0.00 | 0.00 | 73 | 1014.4 |
| 20260903053422 | 83 | 360 | 13.0 | 23.0 | 0.00 | 0.00 | 0.00 | 73 | 1014.4 |
| 20260903053322 | 83 | 360 | 12.0 | 23.0 | 0.00 | 0.00 | 0.00 | 72 | 1014.4 |
| 20260903053222 | 83 | 360 | 12.0 | 23.0 | 0.00 | 0.00 | 0.00 | 72 | 1014.5 |
| 20260903053123 | 83 | 360 | 13.0 | 25.0 | 0.00 | 0.00 | 0.00 | 72 | 1014.5 |
| 20260903053024 | 83 | 360 | 13.0 | 25.0 | 0.00 | 0.00 | 0.00 | 72 | 1014.5 |
| 20260903052924 | 83 | 360 | 14.0 | 25.0 | 0.00 | 0.00 | 0.00 | 72 | 1014.5 |
| 20260903052826 | 83 | 360 | 15.0 | 25.0 | 0.00 | 0.00 | 0.00 | 72 | 1014.5 |
| 20260903052728 | 83 | 360 | 15.0 | 25.0 | 0.00 | 0.00 | 0.00 | 72 | 1014.6 |
| 20260903052630 | 83 | 360 | 16.0 | 25.0 | 0.00 | 0.00 | 0.00 | 71 | 1014.6 |
| 20260903052531 | 83 | 360 | 15.0 | 25.0 | 0.00 | 0.00 | 0.00 | 71 | 1014.5 |
| 20260903052452 | 83 | 360 | 14.0 | 25.0 | 0.00 | 0.00 | 0.00 | 71 | 1014.5 |
| 20260903052331 | 83 | 360 | 13.0 | 25.0 | 0.00 | 0.00 | 0.00 | 71 | 1014.6 |
| 20260903052231 | 83 | 360 | 11.0 | 23.0 | 0.00 | 0.00 | 0.00 | 71 | 1014.5 |
| 20260903052116 | 83 | 360 | 13.0 | 23.0 | 0.00 | 0.00 | 0.00 | 71 | 1014.6 |
| 20260903052016 | 84 | 360 | 14.0 | 25.0 | 0.00 | 0.00 | 0.00 | 71 | 1014.5 |
| 20260903051917 | 84 | 360 | 15.0 | 25.0 | 0.00 | 0.00 | 0.00 | 71 | 1014.6 |
| 20260903051818 | 84 | 360 | 14.0 | 25.0 | 0.00 | 0.00 | 0.00 | 71 | 1014.6 |
| 20260903051739 | 84 | 360 | 14.0 | 25.0 | 0.00 | 0.00 | 0.00 | 71 | 1014.6 |
| 20260903051618 | 84 | 360 | 14.0 | 25.0 | 0.00 | 0.00 | 0.00 | 71 | 1014.5 |
| 20260903051519 | 84 | 360 | 16.0 | 25.0 | 0.00 | 0.00 | 0.00 | 70 | 1014.6 |
| 20260903051424 | 84 | 360 | 18.0 | 25.0 | 0.00 | 0.00 | 0.00 | 70 | 1014.5 |
| 20260903051325 | 84 | 360 | 18.0 | 25.0 | 0.00 | 0.00 | 0.00 | 70 | 1014.5 |
| 20260903051225 | 84 | 360 | 17.0 | 25.0 | 0.00 | 0.00 | 0.00 | 70 | 1014.5 |
| 20260903051126 | 84 | 360 | 15.0 | 25.0 | 0.00 | 0.00 | 0.00 | 70 | 1014.4 |
| 20260903051026 | 84 | 360 | 13.0 | 23.0 | 0.00 | 0.00 | 0.00 | 70 | 1014.5 |
| 20260903050927 | 84 | 360 | 13.0 | 21.0 | 0.00 | 0.00 | 0.00 | 70 | 1014.5 |
| 20260903050827 | 84 | 360 | 13.0 | 21.0 | 0.00 | 0.00 | 0.00 | 69 | 1014.4 |
| 20260903050752 | 84 | 360 | 12.0 | 21.0 | 0.00 | 0.00 | 0.00 | 69 | 1014.4 |
| 20260903050632 | 84 | 360 | 13.0 | 21.0 | 0.00 | 0.00 | 0.00 | 69 | 1014.5 |
| 20260903050532 | 84 | 360 | 12.0 | 21.0 | 0.00 | 0.00 | 0.00 | 69 | 1014.5 |
| 20260903050432 | 84 | 360 | 13.0 | 21.0 | 0.00 | 0.00 | 0.00 | 69 | 1014.5 |
| 20260903050335 | 84 | 360 | 12.0 | 21.0 | 0.00 | 0.00 | 0.00 | 69 | 1014.4 |
| 20260903050235 | 84 | 360 | 13.0 | 21.0 | 0.00 | 0.00 | 0.00 | 68 | 1014.5 |
| 20260903050136 | 84 | 360 | 13.0 | 21.0 | 0.00 | 0.00 | 0.00 | 68 | 1014.5 |
| 20260903045953 | 84 | 360 | 13.0 | 21.0 | 0.00 | 0.00 | 0.00 | 68 | 1014.4 |
| 20260903045855 | 84 | 360 | 13.0 | 21.0 | 0.00 | 0.00 | 0.00 | 68 | 1014.4 |
| 20260903045732 | 84 | 360 | 13.0 | 24.0 | 0.00 | 0.00 | 0.00 | 68 | 1014.5 |
| 20260903045632 | 84 | 360 | 13.0 | 24.0 | 0.00 | 0.00 | 0.00 | 68 | 1014.4 |
| 20260903045552 | 84 | 360 | 12.0 | 24.0 | 0.00 | 0.00 | 0.00 | 67 | 1014.5 |
| 20260903045432 | 85 | 360 | 13.0 | 24.0 | 0.00 | 0.00 | 0.00 | 67 | 1014.4 |
| 20260903045333 | 84 | 153 | 13.0 | 24.0 | 0.00 | 0.00 | 0.00 | 67 | 1014.3 |
| 20260903045233 | 85 | 360 | 14.0 | 24.0 | 0.00 | 0.00 | 0.00 | 67 | 1014.4 |
| 20260903045117 | 85 | 360 | 15.0 | 24.0 | 0.00 | 0.00 | 0.00 | 67 | 1014.5 |
| 20260903045018 | 85 | 360 | 15.0 | 24.0 | 0.00 | 0.00 | 0.00 | 67 | 1014.5 |
| 20260903044919 | 85 | 360 | 16.0 | 24.0 | 0.00 | 0.00 | 0.00 | 67 | 1014.4 |
| 20260903044819 | 85 | 360 | 15.0 | 22.0 | 0.00 | 0.00 | 0.00 | 67 | 1014.4 |
| 20260903044720 | 85 | 360 | 14.0 | 22.0 | 0.00 | 0.00 | 0.00 | 67 | 1014.5 |
| 20260903044619 | 85 | 360 | 14.0 | 22.0 | 0.00 | 0.00 | 0.00 | 67 | 1014.5 |
| 20260903044525 | 85 | 360 | 14.0 | 22.0 | 0.00 | 0.00 | 0.00 | 67 | 1014.3 |
| 20260903044426 | 85 | 360 | 14.0 | 22.0 | 0.00 | 0.00 | 0.00 | 67 | 1014.4 |
| 20260903044327 | 85 | 360 | 14.0 | 22.0 | 0.00 | 0.00 | 0.00 | 67 | 1014.3 |
| 20260903044228 | 85 | 360 | 13.0 | 22.0 | 0.00 | 0.00 | 0.00 | 67 | 1014.4 |
| 20260903044129 | 85 | 360 | 12.0 | 22.0 | 0.00 | 0.00 | 0.00 | 67 | 1014.3 |
| 20260903044050 | 85 | 360 | 12.0 | 22.0 | 0.00 | 0.00 | 0.00 | 67 | 1014.3 |
| 20260903043929 | 85 | 360 | 13.0 | 22.0 | 0.00 | 0.00 | 0.00 | 67 | 1014.3 |
| 20260903043834 | 85 | 360 | 12.0 | 18.0 | 0.00 | 0.00 | 0.00 | 67 | 1014.4 |
| 20260903043734 | 85 | 360 | 11.0 | 18.0 | 0.00 | 0.00 | 0.00 | 67 | 1014.3 |
| 20260903043635 | 85 | 360 | 12.0 | 18.0 | 0.00 | 0.00 | 0.00 | 68 | 1014.3 |
| 20260903043516 | 85 | 360 | 12.0 | 17.0 | 0.00 | 0.00 | 0.00 | 67 | 1014.3 |
| 20260903043416 | 85 | 360 | 11.0 | 17.0 | 0.00 | 0.00 | 0.00 | 67 | 1014.3 |
| 20260903043317 | 85 | 360 | 11.0 | 17.0 | 0.00 | 0.00 | 0.00 | 67 | 1014.3 |
| 20260903043218 | 85 | 360 | 10.0 | 17.0 | 0.00 | 0.00 | 0.00 | 67 | 1014.2 |
| 20260903043143 | 85 | 360 | 10.0 | 13.0 | 0.00 | 0.00 | 0.00 | 67 | 1014.3 |
| 20260903043022 | 85 | 360 | 10.0 | 13.0 | 0.00 | 0.00 | 0.00 | 67 | 1014.3 |
| 20260903042942 | 85 | 360 | 9.0 | 13.0 | 0.00 | 0.00 | 0.00 | 67 | 1014.2 |
| 20260903042823 | 85 | 360 | 10.0 | 13.0 | 0.00 | 0.00 | 0.00 | 67 | 1014.4 |
| 20260903042722 | 85 | 360 | 10.0 | 14.0 | 0.00 | 0.00 | 0.00 | 67 | 1014.3 |
| 20260903042623 | 85 | 360 | 10.0 | 15.0 | 0.00 | 0.00 | 0.00 | 67 | 1014.2 |
| 20260903042522 | 85 | 360 | 9.0 | 15.0 | 0.00 | 0.00 | 0.00 | 67 | 1014.3 |
| 20260903042427 | 85 | 360 | 9.0 | 15.0 | 0.00 | 0.00 | 0.00 | 67 | 1014.2 |
| 20260903042328 | 85 | 360 | 10.0 | 15.0 | 0.00 | 0.00 | 0.00 | 67 | 1014.2 |
| 20260903042228 | 85 | 360 | 10.0 | 15.0 | 0.00 | 0.00 | 0.00 | 67 | 1014.2 |
| 20260903042128 | 85 | 360 | 11.0 | 15.0 | 0.00 | 0.00 | 0.00 | 67 | 1014.2 |
| 20260903042029 | 85 | 360 | 10.0 | 19.0 | 0.00 | 0.00 | 0.00 | 67 | 1014.2 |
| 20260903041950 | 85 | 360 | 10.0 | 19.0 | 0.00 | 0.00 | 0.00 | 67 | 1014.2 |
| 20260903041830 | 85 | 360 | 10.0 | 19.0 | 0.00 | 0.00 | 0.00 | 67 | 1014.1 |
| 20260903041735 | 85 | 360 | 10.0 | 19.0 | 0.00 | 0.00 | 0.00 | 67 | 1014.2 |
| 20260903041656 | 85 | 360 | 10.0 | 19.0 | 0.00 | 0.00 | 0.00 | 67 | 1014.1 |
| 20260903041556 | 85 | 360 | 10.0 | 19.0 | 0.00 | 0.00 | 0.00 | 66 | 1014.2 |
| 20260903041455 | 85 | 360 | 11.0 | 19.0 | 0.00 | 0.00 | 0.00 | 66 | 1014.2 |
| 20260903041335 | 85 | 360 | 12.0 | 19.0 | 0.00 | 0.00 | 0.00 | 66 | 1014.2 |
| 20260903041255 | 85 | 360 | 11.0 | 19.0 | 0.00 | 0.00 | 0.00 | 66 | 1014.2 |
| 20260903041135 | 85 | 360 | 11.0 | 19.0 | 0.00 | 0.00 | 0.00 | 66 | 1014.3 |
| 20260903041017 | 85 | 360 | 9.0 | 19.0 | 0.00 | 0.00 | 0.00 | 66 | 1014.3 |
| 20260903040921 | 85 | 360 | 9.0 | 19.0 | 0.00 | 0.00 | 0.00 | 66 | 1014.2 |
| 20260903040822 | 86 | 360 | 10.0 | 19.0 | 0.00 | 0.00 | 0.00 | 66 | 1014.3 |
| 20260903040743 | 86 | 360 | 9.0 | 20.0 | 0.00 | 0.00 | 0.00 | 65 | 1014.2 |
| 20260903040644 | 86 | 360 | 9.0 | 20.0 | 0.00 | 0.00 | 0.00 | 65 | 1014.2 |
| 20260903040524 | 86 | 360 | 10.0 | 20.0 | 0.00 | 0.00 | 0.00 | 65 | 1014.2 |
| 20260903040423 | 86 | 360 | 9.0 | 20.0 | 0.00 | 0.00 | 0.00 | 65 | 1014.3 |
| 20260903040324 | 86 | 360 | 11.0 | 20.0 | 0.00 | 0.00 | 0.00 | 65 | 1014.2 |
| 20260903040225 | 86 | 360 | 11.0 | 20.0 | 0.00 | 0.00 | 0.00 | 65 | 1014.2 |
| 20260903040130 | 86 | 360 | 12.0 | 20.0 | 0.00 | 0.00 | 0.00 | 65 | 1014.2 |
| 20260903040030 | 86 | 360 | 11.0 | 20.0 | 0.00 | 0.00 | 0.00 | 65 | 1014.2 |
| 20260903035930 | 86 | 360 | 10.0 | 20.0 | 0.00 | 0.00 | 0.00 | 65 | 1014.3 |
| 20260903035831 | 86 | 145 | 9.0 | 16.0 | 0.00 | 0.00 | 0.00 | 64 | 1014.3 |
| 20260903035730 | 86 | 360 | 8.0 | 16.0 | 0.00 | 0.00 | 0.00 | 64 | 1014.2 |
| 20260903035631 | 86 | 360 | 8.0 | 18.0 | 0.00 | 0.00 | 0.00 | 64 | 1014.3 |
| 20260903035532 | 86 | 360 | 9.0 | 18.0 | 0.00 | 0.00 | 0.00 | 64 | 1014.3 |
| 20260903035436 | 86 | 360 | 10.0 | 18.0 | 0.00 | 0.00 | 0.00 | 64 | 1014.2 |
| 20260903035357 | 86 | 360 | 9.0 | 18.0 | 0.00 | 0.00 | 0.00 | 64 | 1014.2 |
| 20260903035256 | 86 | 360 | 9.0 | 18.0 | 0.00 | 0.00 | 0.00 | 64 | 1014.2 |
| 20260903035135 | 86 | 360 | 10.0 | 18.0 | 0.00 | 0.00 | 0.00 | 64 | 1014.2 |
| 20260903035035 | 86 | 360 | 9.0 | 18.0 | 0.00 | 0.00 | 0.00 | 63 | 1014.1 |
| 20260903034936 | 86 | 360 | 9.0 | 18.0 | 0.00 | 0.00 | 0.00 | 63 | 1014.1 |
| 20260903034856 | 86 | 360 | 10.0 | 18.0 | 0.00 | 0.00 | 0.00 | 63 | 1014.1 |
| 20260903034735 | 86 | 360 | 10.0 | 15.0 | 0.00 | 0.00 | 0.00 | 63 | 1014.1 |
| 20260903034654 | 87 | 360 | 10.0 | 15.0 | 0.00 | 0.00 | 0.00 | 63 | 1014.2 |
| 20260903034518 | 87 | 360 | 9.0 | 17.0 | 0.00 | 0.00 | 0.00 | 63 | 1014.2 |
| 20260903034418 | 87 | 360 | 8.0 | 17.0 | 0.00 | 0.00 | 0.00 | 63 | 1014.2 |
| 20260903034318 | 87 | 360 | 8.0 | 17.0 | 0.00 | 0.00 | 0.00 | 62 | 1014.2 |
| 20260903034219 | 87 | 360 | 8.0 | 17.0 | 0.00 | 0.00 | 0.00 | 62 | 1014.2 |
| 20260903034118 | 87 | 360 | 7.0 | 20.0 | 0.00 | 0.00 | 0.00 | 62 | 1014.1 |
| 20260903034039 | 87 | 360 | 8.0 | 20.0 | 0.00 | 0.00 | 0.00 | 62 | 1014.2 |
| 20260903033939 | 87 | 360 | 9.0 | 20.0 | 0.00 | 0.00 | 0.00 | 62 | 1014.1 |
| 20260903033818 | 87 | 360 | 10.0 | 20.0 | 0.00 | 0.00 | 0.00 | 62 | 1014.2 |
| 20260903033739 | 87 | 360 | 11.0 | 20.0 | 0.00 | 0.00 | 0.00 | 61 | 1014.2 |
| 20260903033622 | 87 | 360 | 10.0 | 20.0 | 0.00 | 0.00 | 0.00 | 61 | 1014.1 |
| 20260903033524 | 87 | 360 | 9.0 | 20.0 | 0.00 | 0.00 | 0.00 | 61 | 1014.2 |
| 20260903033425 | 87 | 360 | 9.0 | 20.0 | 0.00 | 0.00 | 0.00 | 61 | 1014.1 |
| 20260903033325 | 87 | 360 | 10.0 | 20.0 | 0.00 | 0.00 | 0.00 | 61 | 1014.1 |
| 20260903033226 | 87 | 360 | 11.0 | 20.0 | 0.00 | 0.00 | 0.00 | 61 | 1014.1 |
| 20260903033126 | 87 | 360 | 11.0 | 20.0 | 0.00 | 0.00 | 0.00 | 61 | 1014.2 |
| 20260903033026 | 87 | 360 | 13.0 | 19.0 | 0.00 | 0.00 | 0.00 | 60 | 1014.2 |
| 20260903032951 | 87 | 360 | 12.0 | 19.0 | 0.00 | 0.00 | 0.00 | 60 | 1014.2 |
| 20260903032832 | 87 | 360 | 12.0 | 19.0 | 0.00 | 0.00 | 0.00 | 60 | 1014.2 |
| 20260903032731 | 87 | 360 | 12.0 | 19.0 | 0.00 | 0.00 | 0.00 | 60 | 1014.3 |
| 20260903032631 | 87 | 360 | 11.0 | 18.0 | 0.00 | 0.00 | 0.00 | 60 | 1014.2 |
| 20260903032552 | 87 | 360 | 11.0 | 18.0 | 0.00 | 0.00 | 0.00 | 60 | 1014.2 |
| 20260903032431 | 87 | 360 | 10.0 | 15.0 | 0.00 | 0.00 | 0.00 | 60 | 1014.2 |
| 20260903032333 | 87 | 360 | 9.0 | 15.0 | 0.00 | 0.00 | 0.00 | 61 | 1014.2 |
| 20260903032218 | 87 | 360 | 8.0 | 14.0 | 0.00 | 0.00 | 0.00 | 61 | 1014.1 |
| 20260903032119 | 87 | 360 | 7.0 | 13.0 | 0.00 | 0.00 | 0.00 | 61 | 1014.2 |
| 20260903032019 | 87 | 360 | 6.0 | 13.0 | 0.00 | 0.00 | 0.00 | 61 | 1014.1 |
| 20260903031920 | 87 | 360 | 6.0 | 13.0 | 0.00 | 0.00 | 0.00 | 61 | 1014.0 |
| 20260903031841 | 87 | 360 | 6.0 | 12.0 | 0.00 | 0.00 | 0.00 | 61 | 1014.0 |
| 20260903031721 | 87 | 102 | 6.0 | 12.0 | 0.00 | 0.00 | 0.00 | 61 | 1014.0 |
| 20260903031622 | 87 | 360 | 6.0 | 12.0 | 0.00 | 0.00 | 0.00 | 61 | 1013.9 |
| 20260903031526 | 87 | 360 | 6.0 | 11.0 | 0.00 | 0.00 | 0.00 | 61 | 1014.0 |
| 20260903031445 | 87 | 360 | 5.0 | 11.0 | 0.00 | 0.00 | 0.00 | 61 | 1013.9 |
| 20260903031324 | 87 | 360 | 5.0 | 10.0 | 0.00 | 0.00 | 0.00 | 61 | 1013.9 |
| 20260903031224 | 87 | 360 | 5.0 | 9.0 | 0.00 | 0.00 | 0.00 | 61 | 1013.8 |
| 20260903031145 | 87 | 138 | 5.0 | 8.0 | 0.00 | 0.00 | 0.00 | 60 | 1013.7 |
| 20260903031025 | 87 | 360 | 5.0 | 8.0 | 0.00 | 0.00 | 0.00 | 61 | 1013.8 |
| 20260903030925 | 87 | 360 | 5.0 | 8.0 | 0.00 | 0.00 | 0.00 | 61 | 1013.7 |
| 20260903030826 | 87 | 360 | 5.0 | 8.0 | 0.00 | 0.00 | 0.00 | 61 | 1013.8 |
| 20260903030732 | 87 | 360 | 5.0 | 8.0 | 0.00 | 0.00 | 0.00 | 61 | 1013.7 |
| 20260903030632 | 87 | 360 | 5.0 | 8.0 | 0.00 | 0.00 | 0.00 | 61 | 1013.7 |
| 20260903030532 | 87 | 360 | 5.0 | 8.0 | 0.00 | 0.00 | 0.00 | 61 | 1013.7 |
| 20260903030433 | 87 | 360 | 4.0 | 6.0 | 0.00 | 0.00 | 0.00 | 61 | 1013.7 |
| 20260903030334 | 87 | 360 | 3.0 | 5.0 | 0.00 | 0.00 | 0.00 | 61 | 1013.7 |
| 20260903030255 | 87 | 360 | 3.0 | 5.0 | 0.00 | 0.00 | 0.00 | 60 | 1013.7 |
| 20260903030118 | 87 | 360 | 3.0 | 5.0 | 0.00 | 0.00 | 0.00 | 60 | 1013.5 |
| 20260903030017 | 87 | 360 | 3.0 | 5.0 | 0.00 | 0.00 | 0.00 | 60 | 1013.5 |
| 20260903025938 | 88 | 360 | 3.0 | 5.0 | 0.00 | 0.00 | 0.00 | 60 | 1013.5 |
| 20260903025819 | 88 | 360 | 3.0 | 5.0 | 0.00 | 0.00 | 0.00 | 60 | 1013.5 |
| 20260903025719 | 88 | 360 | 3.0 | 5.0 | 0.00 | 0.00 | 0.00 | 60 | 1013.4 |
| 20260903025619 | 88 | 360 | 3.0 | 5.0 | 0.00 | 0.00 | 0.00 | 60 | 1013.4 |
| 20260903025520 | 88 | 360 | 3.0 | 5.0 | 0.00 | 0.00 | 0.00 | 60 | 1013.3 |
| 20260903025421 | 88 | 360 | 3.0 | 5.0 | 0.00 | 0.00 | 0.00 | 60 | 1013.4 |
| 20260903025346 | 88 | 360 | 2.0 | 5.0 | 0.00 | 0.00 | 0.00 | 60 | 1013.4 |
| 20260903025226 | 88 | 360 | 3.0 | 5.0 | 0.00 | 0.00 | 0.00 | 60 | 1013.4 |
| 20260903025126 | 88 | 360 | 3.0 | 5.0 | 0.00 | 0.00 | 0.00 | 60 | 1013.4 |
| 20260903025025 | 88 | 360 | 3.0 | 6.0 | 0.00 | 0.00 | 0.00 | 60 | 1013.4 |
| 20260903024926 | 88 | 360 | 3.0 | 6.0 | 0.00 | 0.00 | 0.00 | 60 | 1013.4 |
| 20260903024827 | 88 | 360 | 3.0 | 6.0 | 0.00 | 0.00 | 0.00 | 60 | 1013.4 |
| 20260903024727 | 88 | 360 | 3.0 | 6.0 | 0.00 | 0.00 | 0.00 | 60 | 1013.4 |
| 20260903024627 | 88 | 360 | 3.0 | 6.0 | 0.00 | 0.00 | 0.00 | 60 | 1013.4 |
| 20260903024532 | 88 | 360 | 3.0 | 6.0 | 0.00 | 0.00 | 0.00 | 59 | 1013.3 |
| 20260903024431 | 88 | 360 | 4.0 | 6.0 | 0.00 | 0.00 | 0.00 | 59 | 1013.3 |
| 20260903024332 | 88 | 360 | 4.0 | 6.0 | 0.00 | 0.00 | 0.00 | 59 | 1013.4 |
| 20260903024234 | 88 | 360 | 4.0 | 6.0 | 0.00 | 0.00 | 0.00 | 59 | 1013.4 |
| 20260903024135 | 88 | 360 | 4.0 | 6.0 | 0.00 | 0.00 | 0.00 | 59 | 1013.3 |
| 20260903024036 | 88 | 360 | 4.0 | 6.0 | 0.00 | 0.00 | 0.00 | 59 | 1013.3 |
| 20260903023920 | 88 | 360 | 4.0 | 6.0 | 0.00 | 0.00 | 0.00 | 59 | 1013.3 |
| 20260903023843 | 88 | 360 | 4.0 | 6.0 | 0.00 | 0.00 | 0.00 | 59 | 1013.3 |
| 20260903023716 | 88 | 360 | 3.0 | 6.0 | 0.00 | 0.00 | 0.00 | 59 | 1013.2 |
| 20260903023617 | 88 | 360 | 3.0 | 6.0 | 0.00 | 0.00 | 0.00 | 59 | 1013.2 |
| 20260903023518 | 88 | 360 | 3.0 | 8.0 | 0.00 | 0.00 | 0.00 | 59 | 1013.2 |
| 20260903023418 | 88 | 360 | 3.0 | 8.0 | 0.00 | 0.00 | 0.00 | 59 | 1013.2 |
| 20260903023339 | 88 | 360 | 3.0 | 8.0 | 0.00 | 0.00 | 0.00 | 59 | 1013.2 |
| 20260903023222 | 88 | 360 | 3.0 | 8.0 | 0.00 | 0.00 | 0.00 | 59 | 1013.2 |
| 20260903023123 | 88 | 360 | 3.0 | 8.0 | 0.00 | 0.00 | 0.00 | 59 | 1013.2 |
| 20260903023044 | 88 | 360 | 3.0 | 8.0 | 0.00 | 0.00 | 0.00 | 59 | 1013.2 |
| 20260903022924 | 88 | 143 | 4.0 | 8.0 | 0.00 | 0.00 | 0.00 | 59 | 1013.1 |
| 20260903022826 | 88 | 144 | 4.0 | 8.0 | 0.00 | 0.00 | 0.00 | 59 | 1013.2 |
| 20260903022726 | 88 | 360 | 4.0 | 9.0 | 0.00 | 0.00 | 0.00 | 59 | 1013.2 |
| 20260903022627 | 88 | 360 | 4.0 | 9.0 | 0.00 | 0.00 | 0.00 | 59 | 1013.2 |
| 20260903022532 | 88 | 360 | 3.0 | 9.0 | 0.00 | 0.00 | 0.00 | 59 | 1013.2 |
| 20260903022432 | 88 | 360 | 2.0 | 9.0 | 0.00 | 0.00 | 0.00 | 59 | 1013.1 |
| 20260903022334 | 88 | 360 | 2.0 | 9.0 | 0.00 | 0.00 | 0.00 | 60 | 1013.0 |
| 20260903022234 | 88 | 360 | 2.0 | 9.0 | 0.00 | 0.00 | 0.00 | 60 | 1013.0 |
| 20260903022134 | 88 | 360 | 3.0 | 9.0 | 0.00 | 0.00 | 0.00 | 60 | 1012.9 |
| 20260903022035 | 88 | 360 | 4.0 | 9.0 | 0.00 | 0.00 | 0.00 | 60 | 1013.0 |
| 20260903021920 | 88 | 360 | 5.0 | 9.0 | 0.00 | 0.00 | 0.00 | 59 | 1012.9 |
| 20260903021820 | 88 | 360 | 5.0 | 9.0 | 0.00 | 0.00 | 0.00 | 59 | 1013.0 |
| 20260903021721 | 88 | 360 | 5.0 | 8.0 | 0.00 | 0.00 | 0.00 | 59 | 1012.9 |
| 20260903021642 | 88 | 360 | 5.0 | 8.0 | 0.00 | 0.00 | 0.00 | 58 | 1012.9 |
| 20260903021516 | 89 | 360 | 4.0 | 5.0 | 0.00 | 0.00 | 0.00 | 58 | 1012.9 |
| 20260903021416 | 89 | 360 | 3.0 | 5.0 | 0.00 | 0.00 | 0.00 | 58 | 1012.9 |
| 20260903021316 | 89 | 360 | 2.0 | 3.0 | 0.00 | 0.00 | 0.00 | 57 | 1012.7 |
| 20260903021242 | 89 | 360 | 2.0 | 3.0 | 0.00 | 0.00 | 0.00 | 57 | 1012.7 |
| 20260903021116 | 89 | 360 | 1.0 | 3.0 | 0.00 | 0.00 | 0.00 | 57 | 1012.7 |
| 20260903021016 | 89 | 360 | 2.0 | 3.0 | 0.00 | 0.00 | 0.00 | 57 | 1012.7 |
| 20260903020917 | 89 | 360 | 2.0 | 3.0 | 0.00 | 0.00 | 0.00 | 57 | 1012.6 |
| 20260903020816 | 89 | 360 | 2.0 | 3.0 | 0.00 | 0.00 | 0.00 | 57 | 1012.6 |
| 20260903020717 | 89 | 360 | 2.0 | 3.0 | 0.00 | 0.00 | 0.00 | 56 | 1012.6 |
| 20260903020638 | 89 | 360 | 2.0 | 3.0 | 0.00 | 0.00 | 0.00 | 56 | 1012.6 |
| 20260903020522 | 89 | 360 | 2.0 | 3.0 | 0.00 | 0.00 | 0.00 | 56 | 1012.6 |
| 20260903020423 | 89 | 113 | 2.0 | 3.0 | 0.00 | 0.00 | 0.00 | 56 | 1012.6 |
| 20260903020324 | 89 | 360 | 2.0 | 3.0 | 0.00 | 0.00 | 0.00 | 56 | 1012.6 |
| 20260903020225 | 89 | 360 | 2.0 | 3.0 | 0.00 | 0.00 | 0.00 | 56 | 1012.6 |
| 20260903020146 | 90 | 360 | 2.0 | 3.0 | 0.00 | 0.00 | 0.00 | 56 | 1012.6 |
| 20260903020024 | 90 | 360 | 2.0 | 3.0 | 0.00 | 0.00 | 0.00 | 56 | 1012.6 |
| 20260903015924 | 90 | 360 | 2.0 | 3.0 | 0.00 | 0.00 | 0.00 | 56 | 1012.6 |
| 20260903015825 | 90 | 360 | 2.0 | 3.0 | 0.00 | 0.00 | 0.00 | 56 | 1012.5 |
| 20260903015728 | 90 | 360 | 2.0 | 3.0 | 0.00 | 0.00 | 0.00 | 56 | 1012.6 |
| 20260903015630 | 90 | 360 | 1.0 | 2.0 | 0.00 | 0.00 | 0.00 | 56 | 1012.6 |
| 20260903015531 | 90 | 360 | 1.0 | 2.0 | 0.00 | 0.00 | 0.00 | 56 | 1012.5 |
| 20260903015432 | 90 | 360 | 0.0 | 2.0 | 0.00 | 0.00 | 0.00 | 56 | 1012.6 |
| 20260903015334 | 90 | 115 | 0.0 | 2.0 | 0.00 | 0.00 | 0.00 | 56 | 1012.5 |
| 20260903015235 | 90 | 360 | 1.0 | 2.0 | 0.00 | 0.00 | 0.00 | 55 | 1012.5 |
| 20260903015119 | 90 | 360 | 1.0 | 3.0 | 0.00 | 0.00 | 0.00 | 55 | 1012.6 |
| 20260903015020 | 90 | 360 | 1.0 | 3.0 | 0.00 | 0.00 | 0.00 | 55 | 1012.5 |
| 20260903014921 | 90 | 114 | 1.0 | 3.0 | 0.00 | 0.00 | 0.00 | 55 | 1012.5 |
| 20260903014841 | 90 | 114 | 1.0 | 3.0 | 0.00 | 0.00 | 0.00 | 55 | 1012.5 |
| 20260903014740 | 90 | 360 | 1.0 | 3.0 | 0.00 | 0.00 | 0.00 | 55 | 1012.5 |
| 20260903014620 | 90 | 114 | 2.0 | 3.0 | 0.00 | 0.00 | 0.00 | 55 | 1012.5 |
| 20260903014519 | 90 | 360 | 2.0 | 3.0 | 0.00 | 0.00 | 0.00 | 55 | 1012.4 |
| 20260903014439 | 90 | 114 | 2.0 | 3.0 | 0.00 | 0.00 | 0.00 | 54 | 1012.5 |
| 20260903014318 | 90 | 360 | 2.0 | 3.0 | 0.00 | 0.00 | 0.00 | 55 | 1012.4 |
| 20260903014223 | 90 | 360 | 1.0 | 3.0 | 0.00 | 0.00 | 0.00 | 55 | 1012.4 |
| 20260903014125 | 90 | 360 | 2.0 | 4.0 | 0.00 | 0.00 | 0.00 | 55 | 1012.5 |
| 20260903014026 | 90 | 360 | 2.0 | 4.0 | 0.00 | 0.00 | 0.00 | 55 | 1012.4 |
| 20260903013927 | 90 | 360 | 2.0 | 4.0 | 0.00 | 0.00 | 0.00 | 54 | 1012.4 |
| 20260903013826 | 90 | 360 | 2.0 | 4.0 | 0.00 | 0.00 | 0.00 | 54 | 1012.3 |
| 20260903013727 | 90 | 360 | 2.0 | 4.0 | 0.00 | 0.00 | 0.00 | 54 | 1012.3 |
| 20260903013648 | 90 | 360 | 2.0 | 4.0 | 0.00 | 0.00 | 0.00 | 54 | 1012.4 |
| 20260903013532 | 90 | 360 | 2.0 | 4.0 | 0.00 | 0.00 | 0.00 | 54 | 1012.3 |
| 20260903013431 | 90 | 360 | 2.0 | 4.0 | 0.00 | 0.00 | 0.00 | 54 | 1012.3 |
| 20260903013351 | 90 | 360 | 2.0 | 5.0 | 0.00 | 0.00 | 0.00 | 54 | 1012.4 |
| 20260903013251 | 90 | 360 | 2.0 | 5.0 | 0.00 | 0.00 | 0.00 | 54 | 1012.3 |
| 20260903013130 | 90 | 360 | 2.0 | 5.0 | 0.00 | 0.00 | 0.00 | 55 | 1012.3 |
| 20260903013031 | 91 | 360 | 2.0 | 5.0 | 0.00 | 0.00 | 0.00 | 55 | 1012.4 |
| 20260903012931 | 91 | 360 | 2.0 | 5.0 | 0.00 | 0.00 | 0.00 | 54 | 1012.3 |
| 20260903012853 | 91 | 360 | 3.0 | 5.0 | 0.00 | 0.00 | 0.00 | 55 | 1012.3 |
| 20260903012735 | 91 | 360 | 3.0 | 5.0 | 0.00 | 0.00 | 0.00 | 54 | 1012.3 |
| 20260903012636 | 91 | 360 | 3.0 | 5.0 | 0.00 | 0.00 | 0.00 | 55 | 1012.3 |
| 20260903012557 | 91 | 360 | 3.0 | 5.0 | 0.00 | 0.00 | 0.00 | 54 | 1012.3 |
| 20260903012435 | 91 | 360 | 2.0 | 4.0 | 0.00 | 0.00 | 0.00 | 55 | 1012.4 |
| 20260903012317 | 91 | 360 | 2.0 | 4.0 | 0.00 | 0.00 | 0.00 | 55 | 1012.3 |
| 20260903012238 | 91 | 360 | 3.0 | 4.0 | 0.00 | 0.00 | 0.00 | 54 | 1012.3 |
| 20260903012118 | 91 | 360 | 3.0 | 4.0 | 0.00 | 0.00 | 0.00 | 54 | 1012.3 |
| 20260903012018 | 91 | 360 | 3.0 | 4.0 | 0.00 | 0.00 | 0.00 | 54 | 1012.3 |
| 20260903011922 | 91 | 360 | 3.0 | 4.0 | 0.00 | 0.00 | 0.00 | 54 | 1012.4 |
| 20260903011823 | 91 | 360 | 2.0 | 4.0 | 0.00 | 0.00 | 0.00 | 54 | 1012.3 |
| 20260903011724 | 91 | 360 | 2.0 | 4.0 | 0.00 | 0.00 | 0.00 | 54 | 1012.3 |
| 20260903011624 | 91 | 360 | 2.0 | 4.0 | 0.00 | 0.00 | 0.00 | 54 | 1012.4 |
| 20260903011525 | 91 | 360 | 2.0 | 4.0 | 0.00 | 0.00 | 0.00 | 53 | 1012.3 |
| 20260903011425 | 91 | 360 | 3.0 | 5.0 | 0.00 | 0.00 | 0.00 | 53 | 1012.3 |
| 20260903011325 | 91 | 109 | 3.0 | 5.0 | 0.00 | 0.00 | 0.00 | 53 | 1012.3 |
| 20260903011230 | 92 | 360 | 3.0 | 6.0 | 0.00 | 0.00 | 0.00 | 53 | 1012.3 |
| 20260903011130 | 92 | 360 | 3.0 | 8.0 | 0.00 | 0.00 | 0.00 | 53 | 1012.4 |
| 20260903011050 | 92 | 360 | 3.0 | 8.0 | 0.00 | 0.00 | 0.00 | 53 | 1012.3 |
| 20260903010931 | 92 | 360 | 3.0 | 8.0 | 0.00 | 0.00 | 0.00 | 53 | 1012.4 |
| 20260903010850 | 92 | 360 | 3.0 | 8.0 | 0.00 | 0.00 | 0.00 | 53 | 1012.3 |
| 20260903010729 | 92 | 360 | 4.0 | 9.0 | 0.00 | 0.00 | 0.00 | 52 | 1012.4 |
| 20260903010630 | 92 | 360 | 4.0 | 9.0 | 0.00 | 0.00 | 0.00 | 52 | 1012.4 |
| 20260903010529 | 92 | 360 | 4.0 | 9.0 | 0.00 | 0.00 | 0.00 | 52 | 1012.3 |
| 20260903010434 | 92 | 360 | 5.0 | 9.0 | 0.00 | 0.00 | 0.00 | 51 | 1012.3 |
| 20260903010334 | 93 | 360 | 5.0 | 9.0 | 0.00 | 0.00 | 0.00 | 51 | 1012.3 |
| 20260903010234 | 93 | 360 | 5.0 | 9.0 | 0.00 | 0.00 | 0.00 | 51 | 1012.4 |
| 20260903010155 | 93 | 360 | 4.0 | 9.0 | 0.00 | 0.00 | 0.00 | 51 | 1012.3 |
| 20260903010035 | 93 | 360 | 3.0 | 9.0 | 0.00 | 0.00 | 0.00 | 51 | 1012.3 |
| 20260903005935 | 94 | 360 | 1.0 | 9.0 | 0.00 | 0.00 | 0.00 | 55 | 1012.3 |
| 20260903005835 | 94 | 360 | 0.0 | 1.0 | 0.00 | 0.00 | 0.00 | 54 | 1012.2 |
| 20260903005719 | 94 | 360 | 0.0 | 0.0 | 0.00 | 0.00 | 0.00 | 54 | 1012.3 |
| 20260903005621 | 94 | 360 | 0.0 | 0.0 | 0.00 | 0.00 | 0.00 | 53 | 1012.2 |
| 20260903005522 | 94 | 360 | 0.0 | 0.0 | 0.00 | 0.00 | 0.00 | 53 | 1012.2 |
| 20260903005423 | 95 | 360 | 0.0 | 0.0 | 0.00 | 0.00 | 0.00 | 53 | 1012.1 |
| 20260903005343 | 95 | 360 | 0.0 | 0.0 | 0.00 | 0.00 | 0.00 | 51 | 1012.2 |
| 20260903005306 | 95 | 360 | 0.0 | 0.0 | 0.00 | 0.00 | 0.00 | 51 | 1012.1 |
| 20260903005116 | 95 | 360 | 0.0 | 0.0 | 0.00 | 0.00 | 0.00 | 52 | 1012.1 |
| 20260903005020 | 95 | 360 | 0.0 | 0.0 | 0.00 | 0.00 | 0.00 | 50 | 1012.1 |
| 20260903004920 | 95 | 360 | 0.0 | 0.0 | 0.00 | 0.00 | 0.00 | 50 | 1012.1 |
| 20260903004821 | 95 | 360 | 0.0 | 0.0 | 0.00 | 0.00 | 0.00 | 50 | 1012.2 |
| 20260903004721 | 95 | 360 | 0.0 | 0.0 | 0.00 | 0.00 | 0.00 | 50 | 1012.2 |
| 20260903004622 | 95 | 360 | 0.0 | 0.0 | 0.00 | 0.00 | 0.00 | 50 | 1012.2 |
| 20260903004523 | 95 | 360 | 0.0 | 0.0 | 0.00 | 0.00 | 0.00 | 51 | 1012.3 |
| 20260903004423 | 95 | 360 | 0.0 | 0.0 | 0.00 | 0.00 | 0.00 | 50 | 1012.3 |
| 20260903004328 | 95 | 360 | 0.0 | 0.0 | 0.00 | 0.00 | 0.00 | 50 | 1012.3 |
| 20260903004249 | 95 | 360 | 0.0 | 0.0 | 0.00 | 0.00 | 0.00 | 50 | 1012.2 |
| 20260903004127 | 95 | 360 | 0.0 | 0.0 | 0.00 | 0.00 | 0.00 | 51 | 1012.3 |
| 20260903004028 | 95 | 360 | 0.0 | 0.0 | 0.00 | 0.00 | 0.00 | 51 | 1012.3 |
| 20260903003929 | 95 | 360 | 0.0 | 0.0 | 0.00 | 0.00 | 0.00 | 51 | 1012.2 |
| 20260903003830 | 95 | 360 | 0.0 | 0.0 | 0.00 | 0.00 | 0.00 | 50 | 1012.3 |
| 20260903003730 | 95 | 360 | 0.0 | 0.0 | 0.00 | 0.00 | 0.00 | 50 | 1012.3 |
| 20260903003630 | 95 | 360 | 0.0 | 0.0 | 0.00 | 0.00 | 0.00 | 49 | 1012.3 |
| 20260903003535 | 95 | 360 | 0.0 | 0.0 | 0.00 | 0.00 | 0.00 | 48 | 1012.2 |
| 20260903003417 | 96 | 360 | 0.0 | 0.0 | 0.00 | 0.00 | 0.00 | 48 | 1012.3 |
| 20260903003338 | 96 | 360 | 0.0 | 0.0 | 0.00 | 0.00 | 0.00 | 48 | 1012.3 |
| 20260903003237 | 96 | 360 | 0.0 | 0.0 | 0.00 | 0.00 | 0.00 | 48 | 1012.3 |
| 20260903003137 | 96 | 360 | 0.0 | 0.0 | 0.00 | 0.00 | 0.00 | 48 | 1012.3 |
| 20260903003034 | 96 | 360 | 0.0 | 0.0 | 0.00 | 0.00 | 0.00 | 48 | 1012.2 |
| 20260903002935 | 96 | 360 | 0.0 | 0.0 | 0.00 | 0.00 | 0.00 | 49 | 1012.3 |
| 20260903002820 | 96 | 360 | 0.0 | 0.0 | 0.00 | 0.00 | 0.00 | 48 | 1012.3 |
| 20260903002720 | 96 | 360 | 0.0 | 0.0 | 0.00 | 0.00 | 0.00 | 47 | 1012.3 |
| 20260903002621 | 96 | 360 | 0.0 | 1.0 | 0.00 | 0.00 | 0.00 | 47 | 1012.3 |
| 20260903002521 | 96 | 360 | 0.0 | 1.0 | 0.00 | 0.00 | 0.00 | 47 | 1012.2 |
| 20260903002421 | 96 | 360 | 0.0 | 1.0 | 0.00 | 0.00 | 0.00 | 48 | 1012.1 |
| 20260903002342 | 96 | 360 | 0.0 | 1.0 | 0.00 | 0.00 | 0.00 | 47 | 1012.2 |
| 20260903002216 | 96 | 360 | 0.0 | 1.0 | 0.00 | 0.00 | 0.00 | 46 | 1012.3 |
| 20260903002121 | 96 | 360 | 0.0 | 2.0 | 0.00 | 0.00 | 0.00 | 46 | 1012.2 |
| 20260903002022 | 96 | 360 | 0.0 | 2.0 | 0.00 | 0.00 | 0.00 | 46 | 1012.1 |
| 20260903001943 | 96 | 360 | 0.0 | 2.0 | 0.00 | 0.00 | 0.00 | 46 | 1012.2 |
| 20260903001904 | 96 | 360 | 0.0 | 2.0 | 0.00 | 0.00 | 0.00 | 46 | 1012.3 |
| 20260903001716 | 96 | 360 | 1.0 | 2.0 | 0.00 | 0.00 | 0.00 | 46 | 1012.2 |
| 20260903001616 | 96 | 360 | 1.0 | 2.0 | 0.00 | 0.00 | 0.00 | 46 | 1012.2 |
| 20260903001516 | 96 | 360 | 1.0 | 2.0 | 0.00 | 0.00 | 0.00 | 46 | 1012.2 |
| 20260903001421 | 96 | 360 | 1.0 | 3.0 | 0.00 | 0.00 | 0.00 | 46 | 1012.2 |
| 20260903001322 | 96 | 360 | 1.0 | 3.0 | 0.00 | 0.00 | 0.00 | 46 | 1012.2 |
| 20260903001223 | 97 | 360 | 1.0 | 3.0 | 0.00 | 0.00 | 0.00 | 46 | 1012.3 |
| 20260903001124 | 96 | 360 | 1.0 | 3.0 | 0.00 | 0.00 | 0.00 | 46 | 1012.2 |
| 20260903001024 | 97 | 360 | 1.0 | 4.0 | 0.00 | 0.00 | 0.00 | 45 | 1012.2 |
| 20260903000926 | 96 | 360 | 1.0 | 4.0 | 0.00 | 0.00 | 0.00 | 45 | 1012.2 |
| 20260903000825 | 97 | 360 | 1.0 | 4.0 | 0.00 | 0.00 | 0.00 | 44 | 1012.2 |
| 20260903000731 | 97 | 360 | 2.0 | 4.0 | 0.00 | 0.00 | 0.00 | 44 | 1012.3 |
| 20260903000632 | 97 | 360 | 2.0 | 4.0 | 0.00 | 0.00 | 0.00 | 44 | 1012.2 |
| 20260903000532 | 97 | 360 | 2.0 | 4.0 | 0.00 | 0.00 | 0.00 | 44 | 1012.2 |
| 20260903000433 | 97 | 360 | 2.0 | 4.0 | 0.00 | 0.00 | 0.00 | 44 | 1012.1 |
| 20260903000355 | 97 | 360 | 3.0 | 4.0 | 0.00 | 0.00 | 0.00 | 44 | 1012.2 |
| 20260903000251 | 97 | 360 | 3.0 | 4.0 | 0.00 | 0.00 | 0.00 | 45 | 1012.1 |
| 20260903000132 | 97 | 360 | 3.0 | 4.0 | 0.00 | 0.00 | 0.00 | 44 | 1012.2 |
| 20260903000017 | 97 | 360 | 3.0 | 4.0 | 0.00 | 0.00 | 0.00 | 44 | 1012.1 |
| 20260902235916 | 97 | 360 | 2.0 | 4.0 | 0.00 | 0.00 | 0.00 | 45 | 1012.2 |
| 20260902235818 | 97 | 360 | 1.0 | 4.0 | 0.00 | 0.00 | 0.00 | 45 | 1012.1 |
| 20260902235718 | 97 | 360 | 1.0 | 3.0 | 0.00 | 0.00 | 0.00 | 45 | 1012.2 |
| 20260902235639 | 97 | 360 | 1.0 | 3.0 | 0.00 | 0.00 | 0.00 | 45 | 1012.2 |
| 20260902235518 | 97 | 360 | 1.0 | 3.0 | 0.00 | 0.00 | 0.00 | 45 | 1012.3 |
| 20260902235419 | 97 | 360 | 2.0 | 3.0 | 0.00 | 0.00 | 0.00 | 45 | 1012.3 |
| 20260902235322 | 97 | 360 | 1.0 | 3.0 | 0.00 | 0.00 | 0.00 | 45 | 1012.3 |
| 20260902235222 | 97 | 360 | 2.0 | 4.0 | 0.00 | 0.00 | 0.00 | 45 | 1012.3 |
| 20260902235123 | 97 | 360 | 2.0 | 4.0 | 0.00 | 0.00 | 0.00 | 45 | 1012.3 |
| 20260902235024 | 97 | 360 | 2.0 | 4.0 | 0.00 | 0.00 | 0.00 | 45 | 1012.3 |
| 20260902234924 | 97 | 360 | 2.0 | 5.0 | 0.00 | 0.00 | 0.00 | 45 | 1012.3 |
| 20260902234825 | 97 | 360 | 2.0 | 5.0 | 0.00 | 0.00 | 0.00 | 45 | 1012.2 |
| 20260902234725 | 97 | 360 | 2.0 | 5.0 | 0.00 | 0.00 | 0.00 | 46 | 1012.3 |
| 20260902234629 | 97 | 360 | 2.0 | 5.0 | 0.00 | 0.00 | 0.00 | 45 | 1012.3 |
| 20260902234530 | 97 | 360 | 2.0 | 5.0 | 0.00 | 0.00 | 0.00 | 45 | 1012.1 |
| 20260902234451 | 97 | 360 | 2.0 | 8.0 | 0.00 | 0.00 | 0.00 | 45 | 1012.1 |
| 20260902234329 | 97 | 360 | 3.0 | 8.0 | 0.00 | 0.00 | 0.00 | 45 | 1012.2 |
| 20260902234227 | 97 | 360 | 3.0 | 8.0 | 0.00 | 0.00 | 0.00 | 45 | 1012.1 |
| 20260902234126 | 97 | 360 | 3.0 | 8.0 | 0.00 | 0.00 | 0.00 | 45 | 1012.2 |
| 20260902234026 | 97 | 360 | 4.0 | 8.0 | 0.00 | 0.00 | 0.00 | 44 | 1012.1 |
| 20260902233930 | 97 | 360 | 4.0 | 8.0 | 0.00 | 0.00 | 0.00 | 44 | 1012.3 |
| 20260902233851 | 97 | 360 | 5.0 | 8.0 | 0.00 | 0.00 | 0.00 | 45 | 1012.2 |
| 20260902233730 | 97 | 360 | 4.0 | 8.0 | 0.00 | 0.00 | 0.00 | 45 | 1012.2 |
| 20260902233630 | 97 | 360 | 4.0 | 8.0 | 0.00 | 0.00 | 0.00 | 45 | 1012.3 |
| 20260902233530 | 97 | 360 | 3.0 | 5.0 | 0.00 | 0.00 | 0.00 | 45 | 1012.3 |
| 20260902233432 | 97 | 360 | 3.0 | 5.0 | 0.00 | 0.00 | 0.00 | 45 | 1012.2 |
| 20260902233332 | 97 | 360 | 3.0 | 5.0 | 0.00 | 0.00 | 0.00 | 44 | 1012.2 |
| 20260902233217 | 97 | 360 | 3.0 | 5.0 | 0.00 | 0.00 | 0.00 | 45 | 1012.3 |
| 20260902233117 | 97 | 360 | 3.0 | 5.0 | 0.00 | 0.00 | 0.00 | 44 | 1012.3 |
| 20260902233017 | 97 | 360 | 3.0 | 6.0 | 0.00 | 0.00 | 0.00 | 44 | 1012.3 |
| 20260902232918 | 97 | 360 | 3.0 | 6.0 | 0.00 | 0.00 | 0.00 | 45 | 1012.2 |
| 20260902232820 | 97 | 360 | 4.0 | 6.0 | 0.00 | 0.00 | 0.00 | 45 | 1012.3 |
| 20260902232718 | 97 | 360 | 4.0 | 6.0 | 0.00 | 0.00 | 0.00 | 44 | 1012.3 |
| 20260902232618 | 97 | 360 | 4.0 | 6.0 | 0.00 | 0.00 | 0.00 | 44 | 1012.4 |
| 20260902232524 | 97 | 360 | 4.0 | 6.0 | 0.00 | 0.00 | 0.00 | 44 | 1012.3 |
| 20260902232424 | 98 | 360 | 3.0 | 6.0 | 0.00 | 0.00 | 0.00 | 43 | 1012.4 |
| 20260902232325 | 98 | 360 | 2.0 | 6.0 | 0.00 | 0.00 | 0.00 | 43 | 1012.4 |
| 20260902232226 | 98 | 360 | 1.0 | 6.0 | 0.00 | 0.00 | 0.00 | 43 | 1012.4 |
| 20260902232126 | 98 | 360 | 1.0 | 4.0 | 0.00 | 0.00 | 0.00 | 43 | 1012.4 |
| 20260902232048 | 98 | 360 | 2.0 | 4.0 | 0.00 | 0.00 | 0.00 | 43 | 1012.3 |
| 20260902231927 | 98 | 360 | 2.0 | 4.0 | 0.00 | 0.00 | 0.00 | 43 | 1012.3 |
| 20260902231852 | 98 | 360 | 2.0 | 4.0 | 0.00 | 0.00 | 0.00 | 44 | 1012.4 |
| 20260902231731 | 98 | 360 | 1.0 | 5.0 | 0.00 | 0.00 | 0.00 | 43 | 1012.4 |
| 20260902231632 | 98 | 360 | 1.0 | 5.0 | 0.00 | 0.00 | 0.00 | 44 | 1012.3 |
| 20260902231533 | 98 | 360 | 1.0 | 5.0 | 0.00 | 0.00 | 0.00 | 44 | 1012.3 |
| 20260902231453 | 98 | 360 | 1.0 | 6.0 | 0.00 | 0.00 | 0.00 | 43 | 1012.3 |
| 20260902231333 | 98 | 360 | 1.0 | 6.0 | 0.00 | 0.00 | 0.00 | 43 | 1012.3 |
| 20260902231234 | 98 | 360 | 1.0 | 6.0 | 0.00 | 0.00 | 0.00 | 43 | 1012.3 |
| 20260902231118 | 97 | 360 | 2.0 | 6.0 | 0.00 | 0.00 | 0.00 | 43 | 1012.3 |
| 20260902231018 | 97 | 360 | 2.0 | 6.0 | 0.00 | 0.00 | 0.00 | 43 | 1012.3 |
| 20260902230919 | 97 | 360 | 2.0 | 6.0 | 0.00 | 0.00 | 0.00 | 44 | 1012.3 |
| 20260902230820 | 97 | 360 | 3.0 | 6.0 | 0.00 | 0.00 | 0.00 | 44 | 1012.3 |
| 20260902230720 | 97 | 360 | 3.0 | 6.0 | 0.00 | 0.00 | 0.00 | 44 | 1012.3 |
| 20260902230621 | 97 | 360 | 3.0 | 6.0 | 0.00 | 0.00 | 0.00 | 44 | 1012.2 |
| 20260902230526 | 97 | 360 | 3.0 | 6.0 | 0.00 | 0.00 | 0.00 | 44 | 1012.2 |
| 20260902230426 | 97 | 360 | 4.0 | 6.0 | 0.00 | 0.00 | 0.00 | 44 | 1012.3 |
| 20260902230327 | 97 | 360 | 4.0 | 6.0 | 0.00 | 0.00 | 0.00 | 44 | 1012.3 |
| 20260902230228 | 97 | 360 | 4.0 | 6.0 | 0.00 | 0.00 | 0.00 | 44 | 1012.3 |
| 20260902230128 | 97 | 360 | 3.0 | 8.0 | 0.00 | 0.00 | 0.00 | 43 | 1012.3 |
| 20260902230050 | 97 | 360 | 2.0 | 8.0 | 0.00 | 0.00 | 0.00 | 46 | 1012.3 |
| 20260902225929 | 97 | 360 | 1.0 | 8.0 | 0.00 | 0.00 | 0.00 | 46 | 1012.3 |
| 20260902225835 | 97 | 360 | 2.0 | 8.0 | 0.00 | 0.00 | 0.00 | 46 | 1012.3 |
| 20260902225735 | 97 | 360 | 2.0 | 8.0 | 0.00 | 0.00 | 0.00 | 45 | 1012.3 |
| 20260902225655 | 97 | 360 | 2.0 | 8.0 | 0.00 | 0.00 | 0.00 | 45 | 1012.2 |
| 20260902225535 | 97 | 360 | 2.0 | 8.0 | 0.00 | 0.00 | 0.00 | 46 | 1012.2 |
| 20260902225435 | 97 | 360 | 3.0 | 8.0 | 0.00 | 0.00 | 0.00 | 46 | 1012.3 |
| 20260902225335 | 97 | 360 | 4.0 | 8.0 | 0.00 | 0.00 | 0.00 | 46 | 1012.2 |
| 20260902225238 | 97 | 360 | 4.0 | 10.0 | 0.00 | 0.00 | 0.00 | 48 | 1012.2 |
| 20260902225137 | 96 | 360 | 3.0 | 10.0 | 0.00 | 0.00 | 0.00 | 46 | 1012.2 |
| 20260902225021 | 96 | 360 | 3.0 | 10.0 | 0.00 | 0.00 | 0.00 | 47 | 1012.3 |
| 20260902224921 | 96 | 360 | 3.0 | 10.0 | 0.00 | 0.00 | 0.00 | 47 | 1012.2 |
| 20260902224821 | 96 | 360 | 3.0 | 10.0 | 0.00 | 0.00 | 0.00 | 47 | 1012.3 |
| 20260902224722 | 96 | 360 | 4.0 | 10.0 | 0.00 | 0.00 | 0.00 | 46 | 1012.3 |
| 20260902224622 | 96 | 360 | 5.0 | 10.0 | 0.00 | 0.00 | 0.00 | 46 | 1012.3 |
| 20260902224523 | 96 | 360 | 4.0 | 10.0 | 0.00 | 0.00 | 0.00 | 47 | 1012.3 |
| 20260902224422 | 96 | 360 | 5.0 | 10.0 | 0.00 | 0.00 | 0.00 | 47 | 1012.3 |
| 20260902224328 | 96 | 360 | 4.0 | 8.0 | 0.00 | 0.00 | 0.00 | 47 | 1012.3 |
| 20260902224228 | 96 | 360 | 3.0 | 8.0 | 0.00 | 0.00 | 0.00 | 46 | 1012.3 |
| 20260902224128 | 96 | 360 | 3.0 | 8.0 | 0.00 | 0.00 | 0.00 | 47 | 1012.4 |
| 20260902224029 | 97 | 360 | 2.0 | 8.0 | 0.00 | 0.00 | 0.00 | 47 | 1012.3 |
| 20260902223931 | 97 | 360 | 3.0 | 8.0 | 0.00 | 0.00 | 0.00 | 47 | 1012.3 |
| 20260902223852 | 97 | 360 | 3.0 | 8.0 | 0.00 | 0.00 | 0.00 | 47 | 1012.3 |
| 20260902223732 | 97 | 360 | 2.0 | 9.0 | 0.00 | 0.00 | 0.00 | 46 | 1012.3 |
| 20260902223616 | 97 | 360 | 2.0 | 9.0 | 0.00 | 0.00 | 0.00 | 47 | 1012.3 |
| 20260902223517 | 96 | 360 | 2.0 | 9.0 | 0.00 | 0.00 | 0.00 | 47 | 1012.3 |
| 20260902223418 | 96 | 360 | 2.0 | 9.0 | 0.00 | 0.00 | 0.00 | 47 | 1012.3 |
| 20260902223339 | 96 | 360 | 3.0 | 9.0 | 0.00 | 0.00 | 0.00 | 47 | 1012.3 |
| 20260902223239 | 96 | 360 | 3.0 | 9.0 | 0.00 | 0.00 | 0.00 | 47 | 1012.3 |
| 20260902223118 | 96 | 360 | 3.0 | 9.0 | 0.00 | 0.00 | 0.00 | 47 | 1012.3 |
| 20260902223018 | 96 | 360 | 3.0 | 9.0 | 0.00 | 0.00 | 0.00 | 47 | 1012.3 |
| 20260902222923 | 96 | 360 | 3.0 | 9.0 | 0.00 | 0.00 | 0.00 | 47 | 1012.3 |
| 20260902222824 | 96 | 360 | 3.0 | 9.0 | 0.00 | 0.00 | 0.00 | 47 | 1012.3 |
| 20260902222724 | 96 | 360 | 3.0 | 9.0 | 0.00 | 0.00 | 0.00 | 47 | 1012.3 |
| 20260902222624 | 96 | 360 | 3.0 | 9.0 | 0.00 | 0.00 | 0.00 | 47 | 1012.3 |
| 20260902222546 | 96 | 360 | 3.0 | 9.0 | 0.00 | 0.00 | 0.00 | 47 | 1012.4 |
| 20260902222446 | 96 | 360 | 3.0 | 9.0 | 0.00 | 0.00 | 0.00 | 47 | 1012.4 |
| 20260902222325 | 97 | 360 | 3.0 | 9.0 | 0.00 | 0.00 | 0.00 | 46 | 1012.3 |
| 20260902222230 | 97 | 360 | 3.0 | 9.0 | 0.00 | 0.00 | 0.00 | 45 | 1012.4 |
| 20260902222131 | 97 | 360 | 3.0 | 6.0 | 0.00 | 0.00 | 0.00 | 46 | 1012.4 |
| 20260902222031 | 97 | 360 | 2.0 | 6.0 | 0.00 | 0.00 | 0.00 | 46 | 1012.4 |
| 20260902221932 | 97 | 360 | 3.0 | 8.0 | 0.00 | 0.00 | 0.00 | 46 | 1012.4 |
| 20260902221831 | 97 | 360 | 3.0 | 8.0 | 0.00 | 0.00 | 0.00 | 46 | 1012.3 |
| 20260902221732 | 97 | 360 | 3.0 | 8.0 | 0.00 | 0.00 | 0.00 | 46 | 1012.4 |
| 20260902221616 | 97 | 360 | 4.0 | 9.0 | 0.00 | 0.00 | 0.00 | 46 | 1012.4 |
| 20260902221517 | 97 | 360 | 4.0 | 9.0 | 0.00 | 0.00 | 0.00 | 45 | 1012.4 |
| 20260902221418 | 98 | 360 | 4.0 | 9.0 | 0.00 | 0.00 | 0.00 | 45 | 1012.4 |
| 20260902221318 | 98 | 360 | 5.0 | 9.0 | 0.00 | 0.00 | 0.00 | 45 | 1012.4 |
| 20260902221219 | 98 | 360 | 4.0 | 9.0 | 0.00 | 0.00 | 0.00 | 45 | 1012.3 |
| 20260902221119 | 98 | 360 | 3.0 | 9.0 | 0.00 | 0.00 | 0.00 | 45 | 1012.4 |
| 20260902221040 | 98 | 360 | 3.0 | 9.0 | 0.00 | 0.00 | 0.00 | 44 | 1012.4 |
| 20260902220921 | 98 | 360 | 4.0 | 9.0 | 0.00 | 0.00 | 0.00 | 44 | 1012.4 |
| 20260902220843 | 98 | 360 | 5.0 | 9.0 | 0.00 | 0.00 | 0.00 | 45 | 1012.4 |
| 20260902220716 | 98 | 360 | 3.0 | 8.0 | 0.00 | 0.00 | 0.00 | 45 | 1012.4 |
| 20260902220616 | 97 | 360 | 3.0 | 8.0 | 0.00 | 0.00 | 0.00 | 45 | 1012.5 |
| 20260902220535 | 97 | 360 | 2.0 | 6.0 | 0.00 | 0.00 | 0.00 | 45 | 1012.4 |
| 20260902220416 | 97 | 360 | 3.0 | 8.0 | 0.00 | 0.00 | 0.00 | 45 | 1012.5 |
| 20260902220316 | 97 | 360 | 4.0 | 8.0 | 0.00 | 0.00 | 0.00 | 45 | 1012.5 |
| 20260902220220 | 97 | 360 | 4.0 | 8.0 | 0.00 | 0.00 | 0.00 | 45 | 1012.5 |
| 20260902220141 | 97 | 360 | 4.0 | 8.0 | 0.00 | 0.00 | 0.00 | 46 | 1012.5 |
| 20260902220020 | 97 | 360 | 4.0 | 9.0 | 0.00 | 0.00 | 0.00 | 46 | 1012.6 |
| 20260902215922 | 97 | 360 | 3.0 | 9.0 | 0.00 | 0.00 | 0.00 | 47 | 1012.5 |
| 20260902215843 | 97 | 360 | 3.0 | 9.0 | 0.00 | 0.00 | 0.00 | 47 | 1012.5 |
| 20260902215716 | 97 | 360 | 2.0 | 9.0 | 0.00 | 0.00 | 0.00 | 47 | 1012.5 |
| 20260902215637 | 97 | 360 | 2.0 | 9.0 | 0.00 | 0.00 | 0.00 | 47 | 1012.5 |
| 20260902215513 | 96 | 360 | 3.0 | 9.0 | 0.00 | 0.00 | 0.00 | 47 | 1012.5 |
| 20260902215418 | 96 | 360 | 3.0 | 9.0 | 0.00 | 0.00 | 0.00 | 47 | 1012.6 |
| 20260902215320 | 96 | 360 | 4.0 | 9.0 | 0.00 | 0.00 | 0.00 | 47 | 1012.5 |
| 20260902215229 | 96 | 360 | 4.0 | 9.0 | 0.00 | 0.00 | 0.00 | 47 | 1012.5 |
| 20260902215132 | 96 | 360 | 3.0 | 9.0 | 0.00 | 0.00 | 0.00 | 47 | 1012.6 |
| 20260902215014 | 97 | 360 | 3.0 | 9.0 | 0.00 | 0.00 | 0.00 | 47 | 1012.5 |
| 20260902214921 | 97 | 360 | 3.0 | 9.0 | 0.00 | 0.00 | 0.00 | 47 | 1012.6 |
| 20260902214851 | 97 | 360 | 3.0 | 9.0 | 0.00 | 0.00 | 0.00 | 47 | 1012.5 |
| 20260902214733 | 97 | 360 | 4.0 | 9.0 | 0.00 | 0.00 | 0.00 | 47 | 1012.6 |
| 20260902214622 | 97 | 360 | 5.0 | 9.0 | 0.00 | 0.00 | 0.00 | 47 | 1012.6 |
| 20260902214524 | 97 | 360 | 4.0 | 9.0 | 0.00 | 0.00 | 0.00 | 47 | 1012.7 |
| 20260902214427 | 97 | 360 | 3.0 | 8.0 | 0.00 | 0.00 | 0.00 | 47 | 1012.6 |
| 20260902214330 | 97 | 360 | 4.0 | 8.0 | 0.00 | 0.00 | 0.00 | 47 | 1012.7 |
| 20260902214217 | 97 | 360 | 4.0 | 8.0 | 0.00 | 0.00 | 0.00 | 48 | 1012.6 |
| 20260902214126 | 97 | 360 | 4.0 | 8.0 | 0.00 | 0.00 | 0.00 | 47 | 1012.7 |
| 20260902214049 | 97 | 360 | 3.0 | 8.0 | 0.00 | 0.00 | 0.00 | 47 | 1012.7 |
| 20260902213938 | 97 | 360 | 4.0 | 8.0 | 0.00 | 0.00 | 0.00 | 46 | 1012.7 |
| 20260902213821 | 97 | 360 | 3.0 | 8.0 | 0.00 | 0.00 | 0.00 | 46 | 1012.7 |
| 20260902213723 | 97 | 360 | 2.0 | 8.0 | 0.00 | 0.00 | 0.00 | 46 | 1012.7 |
| 20260902213631 | 97 | 360 | 1.0 | 6.0 | 0.00 | 0.00 | 0.00 | 45 | 1012.7 |
| 20260902213540 | 97 | 360 | 2.0 | 6.0 | 0.00 | 0.00 | 0.00 | 45 | 1012.7 |
| 20260902213422 | 97 | 360 | 3.0 | 6.0 | 0.00 | 0.00 | 0.00 | 45 | 1012.7 |
| 20260902213325 | 97 | 360 | 4.0 | 6.0 | 0.00 | 0.00 | 0.00 | 45 | 1012.6 |
| 20260902213214 | 97 | 360 | 3.0 | 8.0 | 0.00 | 0.00 | 0.00 | 44 | 1012.7 |
| 20260902213115 | 98 | 360 | 2.0 | 8.0 | 0.00 | 0.00 | 0.00 | 45 | 1012.7 |
| 20260902213017 | 98 | 360 | 1.0 | 8.0 | 0.00 | 0.00 | 0.00 | 46 | 1012.7 |
| 20260902212951 | 98 | 360 | 1.0 | 8.0 | 0.00 | 0.00 | 0.00 | 46 | 1012.7 |
| 20260902212834 | 98 | 360 | 2.0 | 8.0 | 0.00 | 0.00 | 0.00 | 46 | 1012.7 |
| 20260902212742 | 98 | 360 | 2.0 | 8.0 | 0.00 | 0.00 | 0.00 | 45 | 1012.8 |
| 20260902212624 | 98 | 360 | 3.0 | 8.0 | 0.00 | 0.00 | 0.00 | 45 | 1012.8 |
| 20260902212554 | 98 | 360 | 4.0 | 8.0 | 0.00 | 0.00 | 0.00 | 45 | 1012.8 |
| 20260902212435 | 98 | 360 | 3.0 | 6.0 | 0.00 | 0.00 | 0.00 | 45 | 1012.8 |
| 20260902212317 | 98 | 360 | 3.0 | 5.0 | 0.00 | 0.00 | 0.00 | 45 | 1012.9 |
| 20260902212231 | 98 | 360 | 2.0 | 5.0 | 0.00 | 0.00 | 0.00 | 45 | 1012.8 |
| 20260902212133 | 98 | 360 | 2.0 | 5.0 | 0.00 | 0.00 | 0.00 | 44 | 1012.8 |
| 20260902212016 | 97 | 360 | 2.0 | 5.0 | 0.00 | 0.00 | 0.00 | 46 | 1012.8 |
| 20260902211926 | 97 | 360 | 3.0 | 5.0 | 0.00 | 0.00 | 0.00 | 46 | 1012.8 |
| 20260902211829 | 97 | 360 | 3.0 | 5.0 | 0.00 | 0.00 | 0.00 | 46 | 1012.8 |
| 20260902211732 | 97 | 360 | 3.0 | 5.0 | 0.00 | 0.00 | 0.00 | 46 | 1012.8 |
| 20260902211634 | 97 | 360 | 2.0 | 4.0 | 0.00 | 0.00 | 0.00 | 46 | 1012.8 |
| 20260902211527 | 97 | 360 | 2.0 | 4.0 | 0.00 | 0.00 | 0.00 | 46 | 1012.8 |
| 20260902211430 | 97 | 360 | 1.0 | 4.0 | 0.00 | 0.00 | 0.00 | 46 | 1012.9 |
| 20260902211333 | 97 | 360 | 1.0 | 4.0 | 0.00 | 0.00 | 0.00 | 46 | 1012.9 |
| 20260902211216 | 97 | 360 | 2.0 | 6.0 | 0.00 | 0.00 | 0.00 | 46 | 1012.8 |
| 20260902211125 | 97 | 360 | 2.0 | 6.0 | 0.00 | 0.00 | 0.00 | 46 | 1012.9 |
| 20260902211027 | 97 | 360 | 2.0 | 6.0 | 0.00 | 0.00 | 0.00 | 46 | 1012.9 |
| 20260902210940 | 96 | 360 | 2.0 | 6.0 | 0.00 | 0.00 | 0.00 | 46 | 1012.9 |
| 20260902210841 | 96 | 360 | 3.0 | 6.0 | 0.00 | 0.00 | 0.00 | 47 | 1012.9 |
| 20260902210749 | 96 | 360 | 3.0 | 6.0 | 0.00 | 0.00 | 0.00 | 46 | 1012.9 |
| 20260902210651 | 96 | 360 | 3.0 | 6.0 | 0.00 | 0.00 | 0.00 | 46 | 1012.9 |
| 20260902210513 | 96 | 360 | 4.0 | 6.0 | 0.00 | 0.00 | 0.00 | 46 | 1012.9 |
| 20260902210443 | 96 | 360 | 4.0 | 6.0 | 0.00 | 0.00 | 0.00 | 47 | 1012.9 |
| 20260902210326 | 96 | 360 | 4.0 | 6.0 | 0.00 | 0.00 | 0.00 | 46 | 1012.9 |
| 20260902210235 | 96 | 360 | 4.0 | 6.0 | 0.00 | 0.00 | 0.00 | 46 | 1012.9 |
| 20260902210122 | 96 | 360 | 4.0 | 8.0 | 0.00 | 0.00 | 0.00 | 46 | 1012.9 |
| 20260902210024 | 96 | 360 | 4.0 | 8.0 | 0.00 | 0.00 | 0.00 | 46 | 1013.0 |
| 20260902205926 | 96 | 360 | 4.0 | 8.0 | 0.00 | 0.00 | 0.00 | 46 | 1013.0 |
| 20260902205837 | 96 | 360 | 4.0 | 8.0 | 0.00 | 0.00 | 0.00 | 46 | 1013.0 |
| 20260902205719 | 97 | 360 | 4.0 | 8.0 | 0.00 | 0.00 | 0.00 | 46 | 1013.0 |
| 20260902205624 | 96 | 360 | 4.0 | 8.0 | 0.00 | 0.00 | 0.00 | 46 | 1013.1 |
| 20260902205554 | 96 | 360 | 4.0 | 8.0 | 0.00 | 0.00 | 0.00 | 46 | 1013.1 |
| 20260902205415 | 96 | 360 | 4.0 | 8.0 | 0.00 | 0.00 | 0.00 | 47 | 1013.1 |
| 20260902205318 | 96 | 360 | 4.0 | 8.0 | 0.00 | 0.00 | 0.00 | 46 | 1013.1 |
| 20260902205228 | 97 | 360 | 4.0 | 8.0 | 0.00 | 0.00 | 0.00 | 46 | 1013.1 |
| 20260902205130 | 97 | 360 | 4.0 | 8.0 | 0.00 | 0.00 | 0.00 | 46 | 1013.1 |
| 20260902205033 | 97 | 360 | 4.0 | 8.0 | 0.00 | 0.00 | 0.00 | 46 | 1013.1 |
| 20260902204919 | 97 | 360 | 3.0 | 6.0 | 0.00 | 0.00 | 0.00 | 46 | 1013.2 |
| 20260902204850 | 97 | 360 | 2.0 | 5.0 | 0.00 | 0.00 | 0.00 | 45 | 1013.2 |
| 20260902204738 | 97 | 360 | 1.0 | 5.0 | 0.00 | 0.00 | 0.00 | 45 | 1013.2 |
| 20260902204619 | 97 | 360 | 2.0 | 6.0 | 0.00 | 0.00 | 0.00 | 45 | 1013.2 |
| 20260902204522 | 97 | 360 | 2.0 | 6.0 | 0.00 | 0.00 | 0.00 | 45 | 1013.3 |
| 20260902204452 | 97 | 360 | 2.0 | 6.0 | 0.00 | 0.00 | 0.00 | 45 | 1013.2 |
| 20260902204314 | 97 | 360 | 3.0 | 6.0 | 0.00 | 0.00 | 0.00 | 46 | 1013.2 |
| 20260902204221 | 97 | 360 | 2.0 | 6.0 | 0.00 | 0.00 | 0.00 | 46 | 1013.3 |
| 20260902204131 | 97 | 360 | 2.0 | 6.0 | 0.00 | 0.00 | 0.00 | 46 | 1013.2 |
| 20260902204033 | 97 | 360 | 2.0 | 6.0 | 0.00 | 0.00 | 0.00 | 46 | 1013.2 |
| 20260902203916 | 97 | 360 | 2.0 | 6.0 | 0.00 | 0.00 | 0.00 | 46 | 1013.3 |
| 20260902203819 | 97 | 360 | 2.0 | 6.0 | 0.00 | 0.00 | 0.00 | 47 | 1013.3 |
| 20260902203722 | 97 | 360 | 2.0 | 5.0 | 0.00 | 0.00 | 0.00 | 49 | 1013.2 |
| 20260902203635 | 97 | 360 | 1.0 | 5.0 | 0.00 | 0.00 | 0.00 | 47 | 1013.3 |
| 20260902203538 | 96 | 360 | 1.0 | 5.0 | 0.00 | 0.00 | 0.00 | 46 | 1013.3 |
| 20260902203420 | 96 | 360 | 1.0 | 5.0 | 0.00 | 0.00 | 0.00 | 46 | 1013.3 |
| 20260902203330 | 96 | 360 | 2.0 | 5.0 | 0.00 | 0.00 | 0.00 | 46 | 1013.3 |
| 20260902203232 | 96 | 360 | 2.0 | 5.0 | 0.00 | 0.00 | 0.00 | 46 | 1013.3 |
| 20260902203115 | 97 | 360 | 3.0 | 6.0 | 0.00 | 0.00 | 0.00 | 46 | 1013.3 |
| 20260902203022 | 97 | 360 | 2.0 | 6.0 | 0.00 | 0.00 | 0.00 | 46 | 1013.3 |
| 20260902202932 | 97 | 360 | 2.0 | 6.0 | 0.00 | 0.00 | 0.00 | 46 | 1013.4 |
| 20260902202815 | 97 | 360 | 1.0 | 6.0 | 0.00 | 0.00 | 0.00 | 46 | 1013.4 |
| 20260902202717 | 96 | 360 | 1.0 | 6.0 | 0.00 | 0.00 | 0.00 | 47 | 1013.4 |
| 20260902202620 | 96 | 360 | 2.0 | 6.0 | 0.00 | 0.00 | 0.00 | 47 | 1013.4 |
| 20260902202530 | 96 | 360 | 3.0 | 6.0 | 0.00 | 0.00 | 0.00 | 47 | 1013.4 |
| 20260902202437 | 96 | 360 | 4.0 | 6.0 | 0.00 | 0.00 | 0.00 | 46 | 1013.4 |
| 20260902202318 | 96 | 360 | 4.0 | 6.0 | 0.00 | 0.00 | 0.00 | 46 | 1013.4 |
| 20260902202229 | 96 | 360 | 3.0 | 6.0 | 0.00 | 0.00 | 0.00 | 46 | 1013.4 |
| 20260902202131 | 97 | 360 | 4.0 | 9.0 | 0.00 | 0.00 | 0.00 | 45 | 1013.4 |
| 20260902202014 | 97 | 360 | 3.0 | 9.0 | 0.00 | 0.00 | 0.00 | 46 | 1013.5 |
| 20260902201917 | 97 | 360 | 3.0 | 9.0 | 0.00 | 0.00 | 0.00 | 46 | 1013.5 |
| 20260902201833 | 97 | 360 | 2.0 | 9.0 | 0.00 | 0.00 | 0.00 | 45 | 1013.5 |
| 20260902201735 | 97 | 360 | 1.0 | 9.0 | 0.00 | 0.00 | 0.00 | 45 | 1013.5 |
| 20260902201617 | 97 | 360 | 3.0 | 9.0 | 0.00 | 0.00 | 0.00 | 45 | 1013.5 |
| 20260902201520 | 97 | 360 | 4.0 | 9.0 | 0.00 | 0.00 | 0.00 | 45 | 1013.5 |
| 20260902201424 | 97 | 360 | 5.0 | 9.0 | 0.00 | 0.00 | 0.00 | 45 | 1013.6 |
| 20260902201334 | 97 | 360 | 5.0 | 9.0 | 0.00 | 0.00 | 0.00 | 45 | 1013.6 |
| 20260902201241 | 98 | 360 | 4.0 | 9.0 | 0.00 | 0.00 | 0.00 | 44 | 1013.6 |
| 20260902201122 | 98 | 360 | 3.0 | 9.0 | 0.00 | 0.00 | 0.00 | 44 | 1013.7 |
| 20260902201030 | 98 | 360 | 2.0 | 5.0 | 0.00 | 0.00 | 0.00 | 44 | 1013.6 |
| 20260902200914 | 98 | 360 | 2.0 | 6.0 | 0.00 | 0.00 | 0.00 | 44 | 1013.7 |
| 20260902200816 | 98 | 360 | 2.0 | 6.0 | 0.00 | 0.00 | 0.00 | 44 | 1013.7 |
| 20260902200726 | 98 | 360 | 3.0 | 6.0 | 0.00 | 0.00 | 0.00 | 44 | 1013.7 |
| 20260902200649 | 98 | 360 | 2.0 | 6.0 | 0.00 | 0.00 | 0.00 | 44 | 1013.7 |
| 20260902200515 | 98 | 360 | 2.0 | 6.0 | 0.00 | 0.00 | 0.00 | 44 | 1013.8 |
| 20260902200425 | 98 | 360 | 1.0 | 6.0 | 0.00 | 0.00 | 0.00 | 44 | 1013.7 |
| 20260902200328 | 98 | 360 | 2.0 | 6.0 | 0.00 | 0.00 | 0.00 | 45 | 1013.7 |
| 20260902200258 | 98 | 360 | 2.0 | 6.0 | 0.00 | 0.00 | 0.00 | 44 | 1013.8 |
| 20260902200119 | 98 | 360 | 2.0 | 6.0 | 0.00 | 0.00 | 0.00 | 45 | 1013.8 |
| 20260902200021 | 98 | 360 | 2.0 | 6.0 | 0.00 | 0.00 | 0.00 | 46 | 1013.9 |
| 20260902195931 | 97 | 360 | 1.0 | 6.0 | 0.00 | 0.00 | 0.00 | 46 | 1013.9 |
| 20260902195818 | 97 | 360 | 1.0 | 6.0 | 0.00 | 0.00 | 0.00 | 45 | 1013.9 |
| 20260902195720 | 97 | 360 | 1.0 | 6.0 | 0.00 | 0.00 | 0.00 | 46 | 1013.9 |
| 20260902195622 | 97 | 360 | 2.0 | 6.0 | 0.00 | 0.00 | 0.00 | 46 | 1013.9 |
| 20260902195534 | 97 | 360 | 2.0 | 6.0 | 0.00 | 0.00 | 0.00 | 46 | 1014.0 |
| 20260902195435 | 97 | 360 | 3.0 | 6.0 | 0.00 | 0.00 | 0.00 | 45 | 1013.9 |
| 20260902195320 | 98 | 360 | 3.0 | 5.0 | 0.00 | 0.00 | 0.00 | 45 | 1014.0 |
| 20260902195223 | 98 | 360 | 3.0 | 5.0 | 0.00 | 0.00 | 0.00 | 45 | 1014.0 |
| 20260902195153 | 98 | 360 | 3.0 | 5.0 | 0.00 | 0.00 | 0.00 | 44 | 1014.0 |
| 20260902195015 | 98 | 360 | 3.0 | 5.0 | 0.00 | 0.00 | 0.00 | 44 | 1014.0 |
| 20260902194917 | 98 | 360 | 2.0 | 5.0 | 0.00 | 0.00 | 0.00 | 44 | 1014.0 |
| 20260902194820 | 98 | 360 | 2.0 | 4.0 | 0.00 | 0.00 | 0.00 | 44 | 1014.1 |
| 20260902194729 | 99 | 360 | 2.0 | 4.0 | 0.00 | 0.00 | 0.00 | 44 | 1014.1 |
| 20260902194636 | 99 | 360 | 2.0 | 4.0 | 0.00 | 0.00 | 0.00 | 43 | 1014.0 |
| 20260902194518 | 99 | 360 | 2.0 | 4.0 | 0.00 | 0.00 | 0.00 | 43 | 1014.1 |
| 20260902194428 | 99 | 360 | 1.0 | 4.0 | 0.00 | 0.00 | 0.00 | 43 | 1014.1 |
| 20260902194331 | 99 | 360 | 1.0 | 4.0 | 0.00 | 0.00 | 0.00 | 42 | 1014.0 |
| 20260902194213 | 99 | 360 | 1.0 | 4.0 | 0.00 | 0.00 | 0.00 | 42 | 1014.1 |
| 20260902194116 | 99 | 360 | 2.0 | 4.0 | 0.00 | 0.00 | 0.00 | 41 | 1014.1 |
| 20260902194030 | 99 | 360 | 2.0 | 4.0 | 0.00 | 0.00 | 0.00 | 41 | 1014.1 |
| 20260902193953 | 99 | 360 | 2.0 | 4.0 | 0.00 | 0.00 | 0.00 | 41 | 1014.2 |
| 20260902193815 | 99 | 360 | 2.0 | 3.0 | 0.00 | 0.00 | 0.00 | 41 | 1014.2 |
| 20260902193725 | 99 | 360 | 1.0 | 3.0 | 0.00 | 0.00 | 0.00 | 41 | 1014.2 |
| 20260902193647 | 99 | 360 | 1.0 | 3.0 | 0.00 | 0.00 | 0.00 | 43 | 1014.2 |
| 20260902193536 | 99 | 360 | 1.0 | 3.0 | 0.00 | 0.00 | 0.00 | 43 | 1014.2 |
| 20260902193422 | 99 | 360 | 2.0 | 3.0 | 0.00 | 0.00 | 0.00 | 44 | 1014.1 |
| 20260902193325 | 99 | 360 | 2.0 | 4.0 | 0.00 | 0.00 | 0.00 | 44 | 1014.3 |
| 20260902193255 | 99 | 360 | 2.0 | 4.0 | 0.00 | 0.00 | 0.00 | 44 | 1014.2 |
| 20260902193117 | 99 | 360 | 2.0 | 4.0 | 0.00 | 0.00 | 0.00 | 43 | 1014.3 |
| 20260902193019 | 99 | 360 | 2.0 | 4.0 | 0.00 | 0.00 | 0.00 | 44 | 1014.3 |
| 20260902192922 | 99 | 360 | 2.0 | 4.0 | 0.00 | 0.00 | 0.00 | 44 | 1014.3 |
| 20260902192825 | 99 | 360 | 2.0 | 4.0 | 0.00 | 0.00 | 0.00 | 43 | 1014.3 |
| 20260902192738 | 99 | 360 | 2.0 | 4.0 | 0.00 | 0.00 | 0.00 | 43 | 1014.3 |
| 20260902192620 | 99 | 360 | 2.0 | 5.0 | 0.00 | 0.00 | 0.00 | 43 | 1014.3 |
| 20260902192523 | 99 | 360 | 2.0 | 5.0 | 0.00 | 0.00 | 0.00 | 43 | 1014.3 |
| 20260902192433 | 99 | 360 | 2.0 | 5.0 | 0.00 | 0.00 | 0.00 | 43 | 1014.3 |
| 20260902192315 | 99 | 360 | 2.0 | 5.0 | 0.00 | 0.00 | 0.00 | 43 | 1014.3 |
| 20260902192217 | 99 | 360 | 2.0 | 5.0 | 0.00 | 0.00 | 0.00 | 42 | 1014.3 |
| 20260902192131 | 99 | 360 | 2.0 | 5.0 | 0.00 | 0.00 | 0.00 | 42 | 1014.4 |
| 20260902192033 | 99 | 360 | 2.0 | 5.0 | 0.00 | 0.00 | 0.00 | 42 | 1014.3 |
| 20260902191943 | 100 | 360 | 2.0 | 5.0 | 0.00 | 0.00 | 0.00 | 42 | 1014.3 |
| 20260902191824 | 100 | 360 | 2.0 | 5.0 | 0.00 | 0.00 | 0.00 | 42 | 1014.4 |
| 20260902191754 | 100 | 360 | 2.0 | 5.0 | 0.00 | 0.00 | 0.00 | 42 | 1014.3 |
| 20260902191616 | 100 | 360 | 2.0 | 5.0 | 0.00 | 0.00 | 0.00 | 42 | 1014.4 |
| 20260902191518 | 100 | 360 | 2.0 | 5.0 | 0.00 | 0.00 | 0.00 | 42 | 1014.4 |
| 20260902191425 | 100 | 360 | 2.0 | 5.0 | 0.00 | 0.00 | 0.00 | 42 | 1014.6 |
| 20260902191314 | 100 | 360 | 2.0 | 6.0 | 0.00 | 0.00 | 0.00 | 42 | 1014.5 |
| 20260902191214 | 100 | 360 | 2.0 | 6.0 | 0.00 | 0.00 | 0.00 | 43 | 1014.5 |
| 20260902191124 | 100 | 360 | 2.0 | 6.0 | 0.00 | 0.00 | 0.00 | 42 | 1014.6 |
| 20260902191027 | 100 | 360 | 2.0 | 6.0 | 0.00 | 0.00 | 0.00 | 42 | 1014.6 |
| 20260902190929 | 100 | 360 | 3.0 | 6.0 | 0.00 | 0.00 | 0.00 | 41 | 1014.6 |
| 20260902190838 | 101 | 360 | 3.0 | 6.0 | 0.00 | 0.00 | 0.00 | 41 | 1014.6 |
| 20260902190743 | 101 | 360 | 3.0 | 6.0 | 0.00 | 0.00 | 0.00 | 40 | 1014.6 |
| 20260902190629 | 102 | 360 | 3.0 | 6.0 | 0.00 | 0.00 | 0.00 | 40 | 1014.7 |
| 20260902190530 | 102 | 360 | 3.0 | 6.0 | 0.00 | 0.00 | 0.00 | 40 | 1014.7 |
| 20260902190418 | 103 | 360 | 3.0 | 6.0 | 0.00 | 0.00 | 0.00 | 39 | 1014.7 |
| 20260902190321 | 103 | 360 | 3.0 | 6.0 | 0.00 | 0.00 | 0.00 | 40 | 1014.7 |
| 20260902190222 | 103 | 360 | 3.0 | 6.0 | 0.00 | 0.00 | 0.00 | 39 | 1014.7 |
| 20260902190130 | 103 | 360 | 2.0 | 5.0 | 0.00 | 0.00 | 0.00 | 39 | 1014.6 |
| 20260902190033 | 103 | 360 | 1.0 | 5.0 | 0.00 | 0.00 | 0.00 | 39 | 1014.6 |
| 20260902185918 | 103 | 360 | 1.0 | 4.0 | 0.00 | 0.00 | 0.00 | 39 | 1014.6 |
| 20260902185827 | 103 | 360 | 1.0 | 4.0 | 0.00 | 0.00 | 0.00 | 39 | 1014.7 |
| 20260902185723 | 103 | 263 | 2.0 | 4.0 | 0.00 | 0.00 | 0.00 | 40 | 1014.6 |
| 20260902185631 | 102 | 265 | 2.0 | 4.0 | 0.00 | 0.00 | 0.00 | 39 | 1014.7 |
| 20260902185533 | 102 | 360 | 2.0 | 4.0 | 0.00 | 0.00 | 0.00 | 39 | 1014.7 |
| 20260902185442 | 102 | 360 | 2.0 | 4.0 | 0.00 | 0.00 | 0.00 | 39 | 1014.7 |
| 20260902185316 | 102 | 360 | 2.0 | 4.0 | 0.00 | 0.00 | 0.00 | 39 | 1014.8 |
| 20260902185248 | 103 | 360 | 3.0 | 4.0 | 0.00 | 0.00 | 0.00 | 39 | 1014.8 |
| 20260902185136 | 103 | 360 | 3.0 | 4.0 | 0.00 | 0.00 | 0.00 | 38 | 1014.8 |
| 20260902185017 | 104 | 360 | 2.0 | 4.0 | 0.00 | 0.00 | 0.00 | 38 | 1014.9 |
| 20260902184919 | 104 | 360 | 2.0 | 4.0 | 0.00 | 0.00 | 0.00 | 38 | 1015.0 |
| 20260902184820 | 104 | 360 | 2.0 | 4.0 | 0.00 | 0.00 | 0.00 | 38 | 1014.9 |
| 20260902184749 | 104 | 360 | 2.0 | 5.0 | 0.00 | 0.00 | 0.00 | 37 | 1014.9 |
| 20260902184630 | 104 | 360 | 2.0 | 5.0 | 0.00 | 0.00 | 0.00 | 38 | 1014.9 |
| 20260902184524 | 104 | 360 | 2.0 | 5.0 | 0.00 | 0.00 | 0.00 | 38 | 1014.9 |
| 20260902184426 | 104 | 360 | 2.0 | 5.0 | 0.00 | 0.00 | 0.00 | 39 | 1015.0 |
| 20260902184329 | 104 | 360 | 2.0 | 5.0 | 0.00 | 0.00 | 0.00 | 39 | 1015.0 |
| 20260902184237 | 104 | 360 | 2.0 | 6.0 | 0.00 | 0.00 | 0.00 | 39 | 1014.9 |
| 20260902184137 | 103 | 360 | 3.0 | 6.0 | 0.00 | 0.00 | 0.00 | 39 | 1015.0 |
| 20260902184017 | 103 | 360 | 2.0 | 6.0 | 0.00 | 0.00 | 0.00 | 40 | 1014.9 |
| 20260902183925 | 102 | 360 | 2.0 | 6.0 | 0.00 | 0.00 | 0.00 | 40 | 1015.0 |
| 20260902183833 | 102 | 360 | 2.0 | 6.0 | 0.00 | 0.00 | 0.00 | 40 | 1014.9 |
| 20260902183717 | 102 | 257 | 2.0 | 6.0 | 0.00 | 0.00 | 0.00 | 40 | 1015.0 |
| 20260902183618 | 102 | 360 | 3.0 | 6.0 | 0.00 | 0.00 | 0.00 | 40 | 1015.0 |
| 20260902183527 | 103 | 360 | 3.0 | 6.0 | 0.00 | 0.00 | 0.00 | 38 | 1015.0 |
| 20260902183427 | 103 | 360 | 2.0 | 6.0 | 0.00 | 0.00 | 0.00 | 38 | 1015.0 |
| 20260902183337 | 104 | 360 | 2.0 | 6.0 | 0.00 | 0.00 | 0.00 | 38 | 1015.1 |
| 20260902183220 | 104 | 360 | 2.0 | 6.0 | 0.00 | 0.00 | 0.00 | 38 | 1015.1 |
| 20260902183117 | 105 | 360 | 2.0 | 6.0 | 0.00 | 0.00 | 0.00 | 37 | 1015.0 |
| 20260902183029 | 105 | 360 | 2.0 | 6.0 | 0.00 | 0.00 | 0.00 | 37 | 1015.1 |
| 20260902182929 | 105 | 360 | 2.0 | 10.0 | 0.00 | 0.00 | 0.00 | 37 | 1015.1 |
| 20260902182817 | 106 | 360 | 2.0 | 10.0 | 0.00 | 0.00 | 0.00 | 36 | 1015.1 |
| 20260902182717 | 107 | 360 | 1.0 | 10.0 | 0.00 | 0.00 | 0.00 | 36 | 1015.1 |
| 20260902182646 | 107 | 360 | 1.0 | 10.0 | 0.00 | 0.00 | 0.00 | 37 | 1015.2 |
| 20260902182524 | 106 | 360 | 2.0 | 10.0 | 0.00 | 0.00 | 0.00 | 37 | 1015.1 |
| 20260902182433 | 106 | 360 | 3.0 | 10.0 | 0.00 | 0.00 | 0.00 | 37 | 1015.1 |
| 20260902182353 | 106 | 360 | 3.0 | 10.0 | 0.00 | 0.00 | 0.00 | 37 | 1015.1 |
| 20260902182224 | 106 | 360 | 2.0 | 10.0 | 0.00 | 0.00 | 0.00 | 37 | 1015.2 |
| 20260902182120 | 106 | 216 | 2.0 | 9.0 | 0.00 | 0.00 | 0.00 | 37 | 1015.2 |
| 20260902182028 | 106 | 360 | 1.0 | 4.0 | 0.00 | 0.00 | 0.00 | 37 | 1015.2 |
| 20260902181936 | 106 | 360 | 1.0 | 4.0 | 0.00 | 0.00 | 0.00 | 37 | 1015.2 |
| 20260902181833 | 105 | 360 | 2.0 | 4.0 | 0.00 | 0.00 | 0.00 | 38 | 1015.2 |
| 20260902181721 | 105 | 360 | 2.0 | 4.0 | 0.00 | 0.00 | 0.00 | 38 | 1015.2 |
| 20260902181642 | 105 | 360 | 2.0 | 4.0 | 0.00 | 0.00 | 0.00 | 39 | 1015.2 |
| 20260902181529 | 104 | 360 | 2.0 | 4.0 | 0.00 | 0.00 | 0.00 | 39 | 1015.3 |
| 20260902181436 | 104 | 360 | 2.0 | 4.0 | 0.00 | 0.00 | 0.00 | 39 | 1015.3 |
| 20260902181315 | 103 | 360 | 1.0 | 6.0 | 0.00 | 0.00 | 0.00 | 41 | 1015.4 |
| 20260902181220 | 102 | 360 | 1.0 | 6.0 | 0.00 | 0.00 | 0.00 | 41 | 1015.3 |
| 20260902181149 | 101 | 360 | 2.0 | 6.0 | 0.00 | 0.00 | 0.00 | 42 | 1015.4 |
| 20260902181031 | 100 | 360 | 2.0 | 6.0 | 0.00 | 0.00 | 0.00 | 43 | 1015.4 |
| 20260902180914 | 99 | 360 | 1.0 | 8.0 | 0.00 | 0.00 | 0.00 | 43 | 1015.4 |
| 20260902180821 | 99 | 360 | 2.0 | 8.0 | 0.00 | 0.00 | 0.00 | 43 | 1015.4 |
| 20260902180750 | 98 | 360 | 3.0 | 8.0 | 0.00 | 0.00 | 0.00 | 44 | 1015.4 |
| 20260902180629 | 98 | 360 | 3.0 | 8.0 | 0.00 | 0.00 | 0.00 | 44 | 1015.5 |
| 20260902180539 | 98 | 360 | 3.0 | 8.0 | 0.00 | 0.00 | 0.00 | 44 | 1015.4 |
| 20260902180424 | 98 | 360 | 3.0 | 10.0 | 0.00 | 0.00 | 0.00 | 44 | 1015.4 |
| 20260902180326 | 98 | 360 | 4.0 | 10.0 | 0.00 | 0.00 | 0.00 | 45 | 1015.5 |
| 20260902180236 | 98 | 360 | 4.0 | 10.0 | 0.00 | 0.00 | 0.00 | 45 | 1015.5 |
| 20260902180131 | 97 | 360 | 4.0 | 10.0 | 0.00 | 0.00 | 0.00 | 44 | 1015.5 |
| 20260902180035 | 98 | 360 | 3.0 | 10.0 | 0.00 | 0.00 | 0.00 | 46 | 1015.5 |
| 20260902175918 | 97 | 360 | 4.0 | 10.0 | 0.00 | 0.00 | 0.00 | 46 | 1015.5 |
| 20260902175822 | 97 | 360 | 5.0 | 10.0 | 0.00 | 0.00 | 0.00 | 45 | 1015.5 |
| 20260902175725 | 97 | 360 | 5.0 | 10.0 | 0.00 | 0.00 | 0.00 | 45 | 1015.6 |
| 20260902175637 | 97 | 360 | 4.0 | 10.0 | 0.00 | 0.00 | 0.00 | 44 | 1015.6 |
| 20260902175518 | 98 | 360 | 4.0 | 9.0 | 0.00 | 0.00 | 0.00 | 44 | 1015.6 |
| 20260902175421 | 98 | 360 | 5.0 | 9.0 | 0.00 | 0.00 | 0.00 | 44 | 1015.7 |
| 20260902175329 | 98 | 360 | 4.0 | 9.0 | 0.00 | 0.00 | 0.00 | 44 | 1015.7 |
| 20260902175232 | 99 | 360 | 3.0 | 9.0 | 0.00 | 0.00 | 0.00 | 43 | 1015.7 |
| 20260902175115 | 99 | 360 | 3.0 | 8.0 | 0.00 | 0.00 | 0.00 | 42 | 1015.8 |
| 20260902175025 | 99 | 360 | 4.0 | 8.0 | 0.00 | 0.00 | 0.00 | 42 | 1015.8 |
| 20260902174932 | 100 | 360 | 4.0 | 8.0 | 0.00 | 0.00 | 0.00 | 42 | 1015.8 |
| 20260902174901 | 100 | 360 | 4.0 | 9.0 | 0.00 | 0.00 | 0.00 | 42 | 1015.8 |
| 20260902174723 | 99 | 360 | 2.0 | 10.0 | 0.00 | 0.00 | 0.00 | 43 | 1015.8 |
| 20260902174626 | 99 | 360 | 2.0 | 10.0 | 0.00 | 0.00 | 0.00 | 43 | 1015.9 |
| 20260902174528 | 99 | 360 | 2.0 | 10.0 | 0.00 | 0.00 | 0.00 | 43 | 1015.8 |
| 20260902174439 | 99 | 360 | 2.0 | 10.0 | 0.00 | 0.00 | 0.00 | 43 | 1015.8 |
| 20260902174345 | 99 | 360 | 3.0 | 10.0 | 0.00 | 0.00 | 0.00 | 43 | 1015.8 |
| 20260902174227 | 98 | 360 | 5.0 | 10.0 | 0.00 | 0.00 | 0.00 | 43 | 1015.9 |
| 20260902174137 | 99 | 360 | 5.0 | 10.0 | 0.00 | 0.00 | 0.00 | 42 | 1015.9 |
| 20260902174040 | 100 | 177 | 3.0 | 10.0 | 0.00 | 0.00 | 0.00 | 42 | 1015.9 |
| 20260902173921 | 100 | 360 | 3.0 | 10.0 | 0.00 | 0.00 | 0.00 | 42 | 1015.9 |
| 20260902173824 | 100 | 360 | 2.0 | 10.0 | 0.00 | 0.00 | 0.00 | 43 | 1015.9 |
| 20260902173713 | 99 | 360 | 3.0 | 10.0 | 0.00 | 0.00 | 0.00 | 44 | 1016.0 |
| 20260902173540 | 99 | 360 | 4.0 | 10.0 | 0.00 | 0.00 | 0.00 | 43 | 1016.0 |
| 20260902173422 | 99 | 360 | 3.0 | 9.0 | 0.00 | 0.00 | 0.00 | 44 | 1015.9 |
| 20260902173324 | 99 | 360 | 2.0 | 9.0 | 0.00 | 0.00 | 0.00 | 44 | 1015.9 |
| 20260902173234 | 98 | 360 | 2.0 | 9.0 | 0.00 | 0.00 | 0.00 | 45 | 1016.1 |
| 20260902173137 | 98 | 360 | 2.0 | 9.0 | 0.00 | 0.00 | 0.00 | 45 | 1016.1 |
| 20260902173045 | 98 | 360 | 4.0 | 9.0 | 0.00 | 0.00 | 0.00 | 44 | 1016.1 |
| 20260902172931 | 98 | 360 | 5.0 | 9.0 | 0.00 | 0.00 | 0.00 | 44 | 1016.0 |
| 20260902172815 | 98 | 360 | 5.0 | 9.0 | 0.00 | 0.00 | 0.00 | 44 | 1016.0 |
| 20260902172717 | 99 | 360 | 4.0 | 8.0 | 0.00 | 0.00 | 0.00 | 43 | 1016.1 |
| 20260902172627 | 99 | 360 | 3.0 | 8.0 | 0.00 | 0.00 | 0.00 | 42 | 1016.2 |
| 20260902172529 | 99 | 360 | 2.0 | 8.0 | 0.00 | 0.00 | 0.00 | 44 | 1016.0 |
| 20260902172432 | 99 | 360 | 2.0 | 8.0 | 0.00 | 0.00 | 0.00 | 44 | 1016.0 |
| 20260902172319 | 98 | 360 | 3.0 | 8.0 | 0.00 | 0.00 | 0.00 | 44 | 1016.1 |
| 20260902172229 | 99 | 360 | 4.0 | 8.0 | 0.00 | 0.00 | 0.00 | 43 | 1016.2 |
| 20260902172151 | 99 | 360 | 4.0 | 8.0 | 0.00 | 0.00 | 0.00 | 43 | 1016.2 |
| 20260902172013 | 100 | 360 | 4.0 | 8.0 | 0.00 | 0.00 | 0.00 | 42 | 1016.2 |
| 20260902171923 | 100 | 360 | 4.0 | 8.0 | 0.00 | 0.00 | 0.00 | 42 | 1016.2 |
| 20260902171846 | 100 | 135 | 3.0 | 6.0 | 0.00 | 0.00 | 0.00 | 41 | 1016.2 |
| 20260902171735 | 101 | 360 | 3.0 | 6.0 | 0.00 | 0.00 | 0.00 | 40 | 1016.2 |
| 20260902171641 | 102 | 360 | 2.0 | 6.0 | 0.00 | 0.00 | 0.00 | 40 | 1016.3 |
| 20260902171549 | 103 | 360 | 1.0 | 5.0 | 0.00 | 0.00 | 0.00 | 40 | 1016.3 |
| 20260902171431 | 102 | 360 | 1.0 | 2.0 | 0.00 | 0.00 | 0.00 | 41 | 1016.3 |
| 20260902171342 | 102 | 360 | 1.0 | 4.0 | 0.00 | 0.00 | 0.00 | 41 | 1016.3 |
| 20260902171223 | 102 | 360 | 1.0 | 5.0 | 0.00 | 0.00 | 0.00 | 41 | 1016.3 |
| 20260902171126 | 101 | 360 | 1.0 | 5.0 | 0.00 | 0.00 | 0.00 | 41 | 1016.4 |
| 20260902171036 | 101 | 360 | 1.0 | 5.0 | 0.00 | 0.00 | 0.00 | 40 | 1016.4 |
| 20260902170922 | 102 | 360 | 1.0 | 5.0 | 0.00 | 0.00 | 0.00 | 40 | 1016.4 |
| 20260902170845 | 102 | 360 | 1.0 | 6.0 | 0.00 | 0.00 | 0.00 | 41 | 1016.4 |
| 20260902170734 | 101 | 360 | 1.0 | 6.0 | 0.00 | 0.00 | 0.00 | 41 | 1016.4 |
| 20260902170637 | 101 | 360 | 2.0 | 6.0 | 0.00 | 0.00 | 0.00 | 42 | 1016.5 |
| 20260902170520 | 100 | 360 | 2.0 | 8.0 | 0.00 | 0.00 | 0.00 | 42 | 1016.4 |
| 20260902170423 | 100 | 360 | 3.0 | 10.0 | 0.00 | 0.00 | 0.00 | 42 | 1016.5 |
| 20260902170331 | 100 | 360 | 3.0 | 10.0 | 0.00 | 0.00 | 0.00 | 42 | 1016.5 |
| 20260902170217 | 101 | 360 | 3.0 | 10.0 | 0.00 | 0.00 | 0.00 | 41 | 1016.5 |
| 20260902170120 | 101 | 360 | 3.0 | 10.0 | 0.00 | 0.00 | 0.00 | 41 | 1016.5 |
| 20260902170050 | 101 | 360 | 2.0 | 10.0 | 0.00 | 0.00 | 0.00 | 41 | 1016.5 |
| 20260902165932 | 101 | 360 | 3.0 | 10.0 | 0.00 | 0.00 | 0.00 | 42 | 1016.5 |
| 20260902165815 | 101 | 360 | 4.0 | 9.0 | 0.00 | 0.00 | 0.00 | 43 | 1016.6 |
| 20260902165718 | 101 | 360 | 5.0 | 9.0 | 0.00 | 0.00 | 0.00 | 42 | 1016.6 |
| 20260902165631 | 101 | 360 | 4.0 | 9.0 | 0.00 | 0.00 | 0.00 | 42 | 1016.5 |
| 20260902165514 | 102 | 360 | 3.0 | 6.0 | 0.00 | 0.00 | 0.00 | 42 | 1016.5 |
| 20260902165417 | 102 | 360 | 2.0 | 6.0 | 0.00 | 0.00 | 0.00 | 42 | 1016.5 |
| 20260902165326 | 102 | 360 | 2.0 | 5.0 | 0.00 | 0.00 | 0.00 | 43 | 1016.5 |
| 20260902165229 | 101 | 360 | 2.0 | 5.0 | 0.00 | 0.00 | 0.00 | 43 | 1016.5 |
| 20260902165132 | 101 | 360 | 2.0 | 5.0 | 0.00 | 0.00 | 0.00 | 43 | 1016.6 |
| 20260902165046 | 100 | 360 | 2.0 | 8.0 | 0.00 | 0.00 | 0.00 | 44 | 1016.6 |
| 20260902164929 | 100 | 360 | 2.0 | 8.0 | 0.00 | 0.00 | 0.00 | 43 | 1016.6 |
| 20260902164836 | 100 | 360 | 2.0 | 8.0 | 0.00 | 0.00 | 0.00 | 44 | 1016.6 |
| 20260902164719 | 100 | 360 | 2.0 | 8.0 | 0.00 | 0.00 | 0.00 | 44 | 1016.7 |
| 20260902164621 | 99 | 360 | 3.0 | 8.0 | 0.00 | 0.00 | 0.00 | 44 | 1016.6 |
| 20260902164530 | 99 | 360 | 3.0 | 8.0 | 0.00 | 0.00 | 0.00 | 43 | 1016.7 |
| 20260902164414 | 100 | 360 | 3.0 | 8.0 | 0.00 | 0.00 | 0.00 | 43 | 1016.7 |
| 20260902163633 | 97 | 360 | 2.0 | 6.0 | 0.00 | 0.00 | 0.00 | 46 | 1016.7 |
| 20260902163517 | 97 | 360 | 2.0 | 8.0 | 0.00 | 0.00 | 0.00 | 46 | 1016.7 |
| 20260902163437 | 97 | 360 | 2.0 | 8.0 | 0.00 | 0.00 | 0.00 | 47 | 1016.7 |
| 20260902163317 | 97 | 360 | 1.0 | 10.0 | 0.00 | 0.00 | 0.00 | 47 | 1016.7 |
| 20260902163217 | 97 | 360 | 1.0 | 10.0 | 0.00 | 0.00 | 0.00 | 48 | 1016.7 |
| 20260902163118 | 96 | 360 | 1.0 | 10.0 | 0.00 | 0.00 | 0.00 | 49 | 1016.7 |
| 20260902163019 | 96 | 360 | 2.0 | 10.0 | 0.00 | 0.00 | 0.00 | 49 | 1016.7 |
| 20260902162918 | 96 | 360 | 3.0 | 10.0 | 0.00 | 0.00 | 0.00 | 48 | 1016.8 |
| 20260902162838 | 96 | 360 | 4.0 | 10.0 | 0.00 | 0.00 | 0.00 | 48 | 1016.8 |
| 20260902162720 | 96 | 360 | 4.0 | 10.0 | 0.00 | 0.00 | 0.00 | 48 | 1016.8 |
| 20260902162642 | 96 | 360 | 4.0 | 10.0 | 0.00 | 0.00 | 0.00 | 48 | 1016.8 |
| 20260902162520 | 96 | 360 | 4.0 | 10.0 | 0.00 | 0.00 | 0.00 | 47 | 1016.8 |
| 20260902162418 | 96 | 360 | 3.0 | 9.0 | 0.00 | 0.00 | 0.00 | 47 | 1016.8 |
| 20260902162318 | 97 | 360 | 2.0 | 6.0 | 0.00 | 0.00 | 0.00 | 47 | 1016.8 |
| 20260902162220 | 97 | 360 | 2.0 | 5.0 | 0.00 | 0.00 | 0.00 | 46 | 1016.8 |
| 20260902162122 | 97 | 360 | 3.0 | 5.0 | 0.00 | 0.00 | 0.00 | 46 | 1016.9 |
| 20260902162022 | 97 | 360 | 3.0 | 6.0 | 0.00 | 0.00 | 0.00 | 46 | 1016.9 |
| 20260902161925 | 98 | 360 | 2.0 | 6.0 | 0.00 | 0.00 | 0.00 | 46 | 1016.8 |
| 20260902161824 | 98 | 360 | 2.0 | 6.0 | 0.00 | 0.00 | 0.00 | 46 | 1016.8 |
| 20260902161725 | 98 | 360 | 2.0 | 6.0 | 0.00 | 0.00 | 0.00 | 46 | 1016.8 |
| 20260902161625 | 98 | 360 | 2.0 | 6.0 | 0.00 | 0.00 | 0.00 | 47 | 1016.8 |
| 20260902161525 | 98 | 360 | 3.0 | 6.0 | 0.00 | 0.00 | 0.00 | 48 | 1016.9 |
| 20260902161424 | 98 | 360 | 3.0 | 6.0 | 0.00 | 0.00 | 0.00 | 47 | 1016.8 |
| 20260902161322 | 99 | 360 | 3.0 | 6.0 | 0.00 | 0.00 | 0.00 | 46 | 1016.9 |
| 20260902161222 | 99 | 360 | 2.0 | 6.0 | 0.00 | 0.00 | 0.00 | 46 | 1016.8 |
| 20260902161125 | 99 | 360 | 2.0 | 5.0 | 0.00 | 0.00 | 0.00 | 47 | 1016.8 |
| 20260902161024 | 99 | 360 | 2.0 | 5.0 | 0.00 | 0.00 | 0.00 | 48 | 1016.8 |
| 20260902160924 | 98 | 360 | 2.0 | 5.0 | 0.00 | 0.00 | 0.00 | 48 | 1016.9 |
| 20260902160844 | 97 | 360 | 1.0 | 6.0 | 0.00 | 0.00 | 0.00 | 49 | 1016.8 |
| 20260902160724 | 97 | 360 | 2.0 | 6.0 | 0.00 | 0.00 | 0.00 | 48 | 1016.9 |
| 20260902160624 | 97 | 360 | 1.0 | 6.0 | 0.00 | 0.00 | 0.00 | 49 | 1016.9 |
| 20260902160525 | 96 | 360 | 2.0 | 6.0 | 0.00 | 0.00 | 0.00 | 49 | 1016.9 |
| 20260902160426 | 96 | 360 | 1.0 | 6.0 | 0.00 | 0.00 | 0.00 | 49 | 1016.9 |
| 20260902160330 | 96 | 360 | 1.0 | 6.0 | 0.00 | 0.00 | 0.00 | 49 | 1016.9 |
| 20260902160230 | 96 | 360 | 2.0 | 6.0 | 0.00 | 0.00 | 0.00 | 48 | 1016.9 |
| 20260902160131 | 96 | 360 | 2.0 | 6.0 | 0.00 | 0.00 | 0.00 | 48 | 1016.9 |
| 20260902160051 | 97 | 360 | 2.0 | 6.0 | 0.00 | 0.00 | 0.00 | 47 | 1016.9 |
| 20260902155931 | 98 | 360 | 2.0 | 6.0 | 0.00 | 0.00 | 0.00 | 47 | 1016.9 |
| 20260902155834 | 98 | 360 | 1.0 | 6.0 | 0.00 | 0.00 | 0.00 | 47 | 1016.9 |
| 20260902155732 | 98 | 360 | 1.0 | 6.0 | 0.00 | 0.00 | 0.00 | 47 | 1016.9 |
| 20260902155617 | 98 | 360 | 1.0 | 8.0 | 0.00 | 0.00 | 0.00 | 49 | 1016.9 |
| 20260902155517 | 97 | 360 | 1.0 | 8.0 | 0.00 | 0.00 | 0.00 | 50 | 1016.8 |
| 20260902155416 | 97 | 360 | 2.0 | 8.0 | 0.00 | 0.00 | 0.00 | 50 | 1016.8 |
| 20260902155337 | 96 | 360 | 3.0 | 8.0 | 0.00 | 0.00 | 0.00 | 50 | 1016.8 |
| 20260902155216 | 96 | 360 | 3.0 | 8.0 | 0.00 | 0.00 | 0.00 | 50 | 1016.9 |
| 20260902155117 | 96 | 360 | 4.0 | 8.0 | 0.00 | 0.00 | 0.00 | 50 | 1016.8 |
| 20260902155037 | 96 | 360 | 4.0 | 8.0 | 0.00 | 0.00 | 0.00 | 49 | 1016.9 |
| 20260902154933 | 97 | 360 | 3.0 | 8.0 | 0.00 | 0.00 | 0.00 | 49 | 1016.9 |
| 20260902154817 | 97 | 360 | 3.0 | 8.0 | 0.00 | 0.00 | 0.00 | 48 | 1016.8 |
| 20260902154716 | 98 | 360 | 2.0 | 5.0 | 0.00 | 0.00 | 0.00 | 49 | 1016.9 |
| 20260902154616 | 97 | 360 | 2.0 | 5.0 | 0.00 | 0.00 | 0.00 | 50 | 1016.8 |
| 20260902154517 | 97 | 360 | 2.0 | 8.0 | 0.00 | 0.00 | 0.00 | 51 | 1016.8 |
| 20260902154437 | 97 | 360 | 2.0 | 8.0 | 0.00 | 0.00 | 0.00 | 51 | 1016.9 |
| 20260902154317 | 97 | 360 | 2.0 | 8.0 | 0.00 | 0.00 | 0.00 | 51 | 1016.9 |
| 20260902154218 | 96 | 360 | 1.0 | 8.0 | 0.00 | 0.00 | 0.00 | 52 | 1016.8 |
| 20260902154123 | 96 | 360 | 1.0 | 8.0 | 0.00 | 0.00 | 0.00 | 52 | 1016.9 |
| 20260902154023 | 95 | 360 | 1.0 | 8.0 | 0.00 | 0.00 | 0.00 | 52 | 1016.8 |
| 20260902153924 | 95 | 360 | 2.0 | 8.0 | 0.00 | 0.00 | 0.00 | 52 | 1016.9 |
| 20260902153824 | 95 | 360 | 2.0 | 8.0 | 0.00 | 0.00 | 0.00 | 52 | 1016.8 |
| 20260902153725 | 94 | 360 | 4.0 | 8.0 | 0.00 | 0.00 | 0.00 | 52 | 1016.9 |
| 20260902153626 | 94 | 360 | 3.0 | 8.0 | 0.00 | 0.00 | 0.00 | 52 | 1016.9 |
| 20260902153526 | 94 | 360 | 3.0 | 8.0 | 0.00 | 0.00 | 0.00 | 54 | 1016.8 |
| 20260902153431 | 94 | 360 | 1.0 | 6.0 | 0.00 | 0.00 | 0.00 | 55 | 1016.8 |
| 20260902153332 | 94 | 360 | 2.0 | 6.0 | 0.00 | 0.00 | 0.00 | 56 | 1016.9 |
| 20260902153233 | 93 | 360 | 2.0 | 8.0 | 0.00 | 0.00 | 0.00 | 56 | 1016.8 |
| 20260902153132 | 93 | 360 | 2.0 | 9.0 | 0.00 | 0.00 | 0.00 | 56 | 1016.9 |
| 20260902153033 | 92 | 360 | 2.0 | 9.0 | 0.00 | 0.00 | 0.00 | 55 | 1016.8 |
| 20260902152933 | 92 | 360 | 2.0 | 9.0 | 0.00 | 0.00 | 0.00 | 56 | 1016.8 |
| 20260902152819 | 92 | 360 | 3.0 | 9.0 | 0.00 | 0.00 | 0.00 | 57 | 1016.9 |
| 20260902152717 | 92 | 360 | 4.0 | 9.0 | 0.00 | 0.00 | 0.00 | 56 | 1016.9 |
| 20260902152617 | 92 | 360 | 4.0 | 9.0 | 0.00 | 0.00 | 0.00 | 56 | 1016.8 |
| 20260902152517 | 92 | 360 | 4.0 | 9.0 | 0.00 | 0.00 | 0.00 | 56 | 1016.9 |
| 20260902152418 | 92 | 360 | 3.0 | 9.0 | 0.00 | 0.00 | 0.00 | 55 | 1016.8 |
| 20260902152317 | 92 | 360 | 4.0 | 9.0 | 0.00 | 0.00 | 0.00 | 56 | 1016.8 |
| 20260902152218 | 93 | 360 | 4.0 | 9.0 | 0.00 | 0.00 | 0.00 | 56 | 1016.9 |
| 20260902152142 | 93 | 360 | 4.0 | 8.0 | 0.00 | 0.00 | 0.00 | 56 | 1016.9 |
| 20260902152022 | 93 | 360 | 3.0 | 8.0 | 0.00 | 0.00 | 0.00 | 56 | 1016.8 |
| 20260902151923 | 93 | 360 | 4.0 | 8.0 | 0.00 | 0.00 | 0.00 | 56 | 1016.8 |
| 20260902151824 | 93 | 360 | 3.0 | 8.0 | 0.00 | 0.00 | 0.00 | 58 | 1016.8 |
| 20260902151724 | 92 | 360 | 2.0 | 8.0 | 0.00 | 0.00 | 0.00 | 58 | 1016.9 |
| 20260902151624 | 92 | 360 | 2.0 | 8.0 | 0.00 | 0.00 | 0.00 | 58 | 1016.7 |
| 20260902151524 | 92 | 360 | 3.0 | 8.0 | 0.00 | 0.00 | 0.00 | 58 | 1016.8 |
| 20260902151429 | 91 | 360 | 3.0 | 8.0 | 0.00 | 0.00 | 0.00 | 58 | 1016.8 |
| 20260902151328 | 91 | 360 | 3.0 | 8.0 | 0.00 | 0.00 | 0.00 | 59 | 1016.8 |
| 20260902151249 | 91 | 360 | 3.0 | 8.0 | 0.00 | 0.00 | 0.00 | 59 | 1016.8 |
| 20260902151147 | 91 | 360 | 4.0 | 8.0 | 0.00 | 0.00 | 0.00 | 59 | 1016.7 |
| 20260902151046 | 91 | 360 | 3.0 | 8.0 | 0.00 | 0.00 | 0.00 | 60 | 1016.8 |
| 20260902150925 | 91 | 360 | 3.0 | 8.0 | 0.00 | 0.00 | 0.00 | 61 | 1016.8 |
| 20260902150825 | 90 | 360 | 2.0 | 6.0 | 0.00 | 0.00 | 0.00 | 61 | 1016.8 |
| 20260902150726 | 90 | 360 | 2.0 | 8.0 | 0.00 | 0.00 | 0.00 | 62 | 1016.8 |
| 20260902150651 | 89 | 360 | 2.0 | 8.0 | 0.00 | 0.00 | 0.00 | 62 | 1016.8 |
| 20260902150529 | 89 | 360 | 2.0 | 8.0 | 0.00 | 0.00 | 0.00 | 62 | 1016.8 |
| 20260902150427 | 89 | 360 | 3.0 | 10.0 | 0.00 | 0.00 | 0.00 | 61 | 1016.8 |
| 20260902150327 | 90 | 360 | 3.0 | 10.0 | 0.00 | 0.00 | 0.00 | 61 | 1016.9 |
| 20260902150228 | 89 | 360 | 4.0 | 10.0 | 0.00 | 0.00 | 0.00 | 61 | 1016.8 |
| 20260902150129 | 89 | 360 | 4.0 | 10.0 | 0.00 | 0.00 | 0.00 | 61 | 1016.8 |
| 20260902150029 | 89 | 360 | 4.0 | 10.0 | 0.00 | 0.00 | 0.00 | 61 | 1016.8 |
| 20260902145934 | 89 | 360 | 3.0 | 10.0 | 0.00 | 0.00 | 0.00 | 62 | 1016.8 |
| 20260902145835 | 89 | 360 | 3.0 | 10.0 | 0.00 | 0.00 | 0.00 | 62 | 1016.9 |
| 20260902145735 | 89 | 360 | 3.0 | 10.0 | 0.00 | 0.00 | 0.00 | 62 | 1016.8 |
| 20260902145635 | 89 | 360 | 4.0 | 10.0 | 0.00 | 0.00 | 0.00 | 63 | 1016.9 |
| 20260902145534 | 89 | 360 | 3.0 | 10.0 | 0.00 | 0.00 | 0.00 | 63 | 1016.8 |
| 20260902145424 | 89 | 360 | 3.0 | 10.0 | 0.00 | 0.00 | 0.00 | 63 | 1016.9 |
| 20260902145328 | 89 | 360 | 3.0 | 10.0 | 0.00 | 0.00 | 0.00 | 63 | 1016.8 |
| 20260902145229 | 89 | 360 | 3.0 | 10.0 | 0.00 | 0.00 | 0.00 | 63 | 1016.9 |
| 20260902145128 | 88 | 360 | 4.0 | 10.0 | 0.00 | 0.00 | 0.00 | 63 | 1016.9 |
| 20260902145029 | 88 | 360 | 4.0 | 10.0 | 0.00 | 0.00 | 0.00 | 63 | 1016.8 |
| 20260902144930 | 88 | 360 | 4.0 | 10.0 | 0.00 | 0.00 | 0.00 | 63 | 1016.9 |
| 20260902144830 | 88 | 360 | 4.0 | 10.0 | 0.00 | 0.00 | 0.00 | 63 | 1016.9 |
| 20260902144731 | 88 | 360 | 4.0 | 10.0 | 0.00 | 0.00 | 0.00 | 63 | 1016.9 |
| 20260902144617 | 88 | 360 | 4.0 | 10.0 | 0.00 | 0.00 | 0.00 | 63 | 1016.9 |
| 20260902144516 | 88 | 360 | 5.0 | 10.0 | 0.00 | 0.00 | 0.00 | 64 | 1016.9 |
| 20260902144417 | 88 | 360 | 5.0 | 10.0 | 0.00 | 0.00 | 0.00 | 63 | 1016.9 |
| 20260902144318 | 88 | 360 | 5.0 | 10.0 | 0.00 | 0.00 | 0.00 | 63 | 1016.9 |
| 20260902144218 | 89 | 360 | 4.0 | 10.0 | 0.00 | 0.00 | 0.00 | 63 | 1016.9 |
| 20260902144118 | 89 | 360 | 4.0 | 10.0 | 0.00 | 0.00 | 0.00 | 63 | 1016.9 |
| 20260902144023 | 89 | 360 | 4.0 | 8.0 | 0.00 | 0.00 | 0.00 | 63 | 1016.9 |
| 20260902143923 | 89 | 360 | 3.0 | 8.0 | 0.00 | 0.00 | 0.00 | 63 | 1016.9 |
| 20260902143826 | 89 | 360 | 3.0 | 8.0 | 0.00 | 0.00 | 0.00 | 64 | 1016.9 |
| 20260902143744 | 89 | 360 | 3.0 | 8.0 | 0.00 | 0.00 | 0.00 | 65 | 1016.9 |
| 20260902143642 | 89 | 360 | 2.0 | 8.0 | 0.00 | 0.00 | 0.00 | 66 | 1016.9 |
| 20260902143542 | 89 | 360 | 1.0 | 6.0 | 0.00 | 0.00 | 0.00 | 67 | 1016.9 |
| 20260902143441 | 88 | 360 | 1.0 | 4.0 | 0.00 | 0.00 | 0.00 | 67 | 1016.9 |
| 20260902143342 | 88 | 360 | 2.0 | 4.0 | 0.00 | 0.00 | 0.00 | 67 | 1017.0 |
| 20260902143242 | 88 | 360 | 2.0 | 4.0 | 0.00 | 0.00 | 0.00 | 67 | 1017.0 |
| 20260902143125 | 88 | 360 | 2.0 | 4.0 | 0.00 | 0.00 | 0.00 | 66 | 1017.0 |
| 20260902143025 | 88 | 360 | 2.0 | 4.0 | 0.00 | 0.00 | 0.00 | 66 | 1017.0 |
| 20260902142926 | 88 | 322 | 2.0 | 4.0 | 0.00 | 0.00 | 0.00 | 67 | 1017.0 |
| 20260902142828 | 88 | 323 | 2.0 | 4.0 | 0.00 | 0.00 | 0.00 | 67 | 1017.0 |
| 20260902142728 | 88 | 360 | 1.0 | 4.0 | 0.00 | 0.00 | 0.00 | 67 | 1016.9 |
| 20260902142648 | 88 | 295 | 1.0 | 4.0 | 0.00 | 0.00 | 0.00 | 69 | 1017.0 |
| 20260902142527 | 87 | 360 | 1.0 | 4.0 | 0.00 | 0.00 | 0.00 | 69 | 1017.0 |
| 20260902142449 | 87 | 360 | 1.0 | 4.0 | 0.00 | 0.00 | 0.00 | 69 | 1017.0 |
| 20260902142331 | 87 | 360 | 1.0 | 4.0 | 0.00 | 0.00 | 0.00 | 70 | 1017.0 |
| 20260902142231 | 86 | 360 | 2.0 | 4.0 | 0.00 | 0.00 | 0.00 | 70 | 1017.0 |
| 20260902142131 | 86 | 360 | 2.0 | 4.0 | 0.00 | 0.00 | 0.00 | 69 | 1017.0 |
| 20260902142052 | 86 | 360 | 2.0 | 3.0 | 0.00 | 0.00 | 0.00 | 69 | 1017.1 |
| 20260902141951 | 86 | 360 | 3.0 | 3.0 | 0.00 | 0.00 | 0.00 | 69 | 1017.1 |
| 20260902141830 | 86 | 290 | 2.0 | 3.0 | 0.00 | 0.00 | 0.00 | 70 | 1017.0 |
| 20260902141730 | 86 | 360 | 2.0 | 3.0 | 0.00 | 0.00 | 0.00 | 72 | 1017.0 |
| 20260902141631 | 85 | 360 | 1.0 | 3.0 | 0.00 | 0.00 | 0.00 | 72 | 1017.0 |
| 20260902141535 | 85 | 360 | 1.0 | 3.0 | 0.00 | 0.00 | 0.00 | 72 | 1017.1 |
| 20260902141436 | 85 | 360 | 1.0 | 3.0 | 0.00 | 0.00 | 0.00 | 72 | 1017.0 |
| 20260902141335 | 84 | 360 | 1.0 | 3.0 | 0.00 | 0.00 | 0.00 | 72 | 1017.1 |
| 20260902141236 | 84 | 360 | 2.0 | 3.0 | 0.00 | 0.00 | 0.00 | 72 | 1017.0 |
| 20260902141135 | 84 | 360 | 1.0 | 3.0 | 0.00 | 0.00 | 0.00 | 72 | 1017.1 |
| 20260902141035 | 84 | 171 | 1.0 | 4.0 | 0.00 | 0.00 | 0.00 | 72 | 1017.0 |
| 20260902140936 | 84 | 360 | 1.0 | 3.0 | 0.00 | 0.00 | 0.00 | 72 | 1017.0 |
| 20260902140820 | 83 | 171 | 2.0 | 3.0 | 0.00 | 0.00 | 0.00 | 72 | 1017.1 |
| 20260902140720 | 83 | 360 | 2.0 | 3.0 | 0.00 | 0.00 | 0.00 | 72 | 1017.0 |
| 20260902140621 | 83 | 360 | 2.0 | 3.0 | 0.00 | 0.00 | 0.00 | 72 | 1017.0 |
| 20260902140542 | 83 | 360 | 1.0 | 3.0 | 0.00 | 0.00 | 0.00 | 73 | 1017.0 |
| 20260902140420 | 83 | 360 | 1.0 | 3.0 | 0.00 | 0.00 | 0.00 | 73 | 1017.1 |
| 20260902140321 | 83 | 360 | 1.0 | 3.0 | 0.00 | 0.00 | 0.00 | 73 | 1017.0 |
| 20260902140221 | 83 | 171 | 1.0 | 3.0 | 0.00 | 0.00 | 0.00 | 73 | 1017.1 |
| 20260902140126 | 82 | 171 | 1.0 | 3.0 | 0.00 | 0.00 | 0.00 | 74 | 1017.0 |
| 20260902140025 | 82 | 360 | 1.0 | 3.0 | 0.00 | 0.00 | 0.00 | 74 | 1017.1 |
| 20260902135926 | 82 | 170 | 0.0 | 2.0 | 0.00 | 0.00 | 0.00 | 74 | 1017.0 |
| 20260902135828 | 82 | 170 | 0.0 | 2.0 | 0.00 | 0.00 | 0.00 | 74 | 1017.1 |
| 20260902135728 | 82 | 171 | 0.0 | 2.0 | 0.00 | 0.00 | 0.00 | 75 | 1017.1 |
| 20260902135628 | 82 | 170 | 0.0 | 2.0 | 0.00 | 0.00 | 0.00 | 74 | 1017.1 |
| 20260902135529 | 82 | 170 | 0.0 | 2.0 | 0.00 | 0.00 | 0.00 | 75 | 1017.0 |
| 20260902135433 | 82 | 170 | 0.0 | 0.0 | 0.00 | 0.00 | 0.00 | 75 | 1017.0 |
| 20260902135354 | 82 | 170 | 0.0 | 0.0 | 0.00 | 0.00 | 0.00 | 76 | 1017.0 |
| 20260902135254 | 81 | 170 | 0.0 | 0.0 | 0.00 | 0.00 | 0.00 | 76 | 1017.0 |
| 20260902135133 | 81 | 170 | 0.0 | 0.0 | 0.00 | 0.00 | 0.00 | 76 | 1017.0 |
| 20260902135033 | 81 | 170 | 0.0 | 0.0 | 0.00 | 0.00 | 0.00 | 76 | 1017.0 |
| 20260902134934 | 81 | 170 | 0.0 | 0.0 | 0.00 | 0.00 | 0.00 | 76 | 1017.0 |
| 20260902134834 | 81 | 170 | 0.0 | 0.0 | 0.00 | 0.00 | 0.00 | 77 | 1016.9 |
| 20260902134719 | 81 | 170 | 0.0 | 0.0 | 0.00 | 0.00 | 0.00 | 77 | 1016.9 |
| 20260902134619 | 81 | 170 | 0.0 | 0.0 | 0.00 | 0.00 | 0.00 | 77 | 1016.9 |
| 20260902134520 | 81 | 170 | 0.0 | 0.0 | 0.00 | 0.00 | 0.00 | 77 | 1017.0 |
| 20260902134420 | 80 | 170 | 0.0 | 0.0 | 0.00 | 0.00 | 0.00 | 77 | 1016.9 |
| 20260902134321 | 80 | 170 | 0.0 | 0.0 | 0.00 | 0.00 | 0.00 | 77 | 1016.9 |
| 20260902134221 | 80 | 170 | 0.0 | 0.0 | 0.00 | 0.00 | 0.00 | 77 | 1016.9 |
| 20260902134125 | 80 | 170 | 0.0 | 0.0 | 0.00 | 0.00 | 0.00 | 77 | 1016.9 |
| 20260902134027 | 80 | 170 | 0.0 | 0.0 | 0.00 | 0.00 | 0.00 | 77 | 1016.8 |
| 20260902133948 | 80 | 360 | 0.0 | 0.0 | 0.00 | 0.00 | 0.00 | 77 | 1016.9 |
| 20260902133827 | 80 | 360 | 0.0 | 0.0 | 0.00 | 0.00 | 0.00 | 77 | 1016.9 |
| 20260902133728 | 80 | 170 | 0.0 | 0.0 | 0.00 | 0.00 | 0.00 | 77 | 1016.9 |
| 20260902133629 | 80 | 170 | 0.0 | 0.0 | 0.00 | 0.00 | 0.00 | 77 | 1016.9 |
| 20260902133529 | 80 | 171 | 0.0 | 0.0 | 0.00 | 0.00 | 0.00 | 77 | 1016.8 |
| 20260902133430 | 80 | 171 | 0.0 | 0.0 | 0.00 | 0.00 | 0.00 | 78 | 1016.8 |
| 20260902133334 | 80 | 170 | 0.0 | 0.0 | 0.00 | 0.00 | 0.00 | 77 | 1016.8 |
| 20260902133235 | 80 | 360 | 0.0 | 0.0 | 0.00 | 0.00 | 0.00 | 77 | 1016.8 |
| 20260902133135 | 80 | 360 | 0.0 | 0.0 | 0.00 | 0.00 | 0.00 | 77 | 1016.8 |
| 20260902133016 | 79 | 171 | 0.0 | 2.0 | 0.00 | 0.00 | 0.00 | 78 | 1016.8 |
| 20260902132917 | 79 | 171 | 0.0 | 2.0 | 0.00 | 0.00 | 0.00 | 78 | 1016.8 |
| 20260902132838 | 79 | 170 | 0.0 | 2.0 | 0.00 | 0.00 | 0.00 | 77 | 1016.8 |
| 20260902132721 | 79 | 170 | 0.0 | 2.0 | 0.00 | 0.00 | 0.00 | 77 | 1016.8 |
| 20260902132620 | 79 | 170 | 0.0 | 2.0 | 0.00 | 0.00 | 0.00 | 77 | 1016.8 |
| 20260902132521 | 79 | 360 | 0.0 | 2.0 | 0.00 | 0.00 | 0.00 | 77 | 1016.8 |
| 20260902132442 | 79 | 360 | 0.0 | 2.0 | 0.00 | 0.00 | 0.00 | 77 | 1016.8 |
| 20260902132322 | 79 | 171 | 1.0 | 2.0 | 0.00 | 0.00 | 0.00 | 77 | 1016.8 |
| 20260902132222 | 79 | 171 | 1.0 | 2.0 | 0.00 | 0.00 | 0.00 | 77 | 1016.8 |
| 20260902132124 | 79 | 171 | 1.0 | 2.0 | 0.00 | 0.00 | 0.00 | 77 | 1016.7 |
| 20260902132028 | 79 | 360 | 1.0 | 2.0 | 0.00 | 0.00 | 0.00 | 77 | 1016.8 |
| 20260902131929 | 79 | 360 | 1.0 | 2.0 | 0.00 | 0.00 | 0.00 | 77 | 1016.7 |
| 20260902131831 | 79 | 360 | 1.0 | 2.0 | 0.00 | 0.00 | 0.00 | 77 | 1016.7 |
| 20260902131729 | 79 | 360 | 1.0 | 2.0 | 0.00 | 0.00 | 0.00 | 78 | 1016.7 |
| 20260902131630 | 79 | 170 | 1.0 | 2.0 | 0.00 | 0.00 | 0.00 | 78 | 1016.6 |
| 20260902131530 | 79 | 171 | 1.0 | 2.0 | 0.00 | 0.00 | 0.00 | 78 | 1016.7 |
| 20260902131431 | 79 | 171 | 1.0 | 2.0 | 0.00 | 0.00 | 0.00 | 78 | 1016.7 |
| 20260902131335 | 79 | 170 | 1.0 | 2.0 | 0.00 | 0.00 | 0.00 | 78 | 1016.6 |
| 20260902131216 | 79 | 360 | 0.0 | 2.0 | 0.00 | 0.00 | 0.00 | 78 | 1016.6 |
| 20260902131116 | 79 | 360 | 0.0 | 2.0 | 0.00 | 0.00 | 0.00 | 78 | 1016.7 |
| 20260902131016 | 79 | 360 | 0.0 | 2.0 | 0.00 | 0.00 | 0.00 | 79 | 1016.6 |
| 20260902130917 | 79 | 360 | 1.0 | 2.0 | 0.00 | 0.00 | 0.00 | 79 | 1016.6 |
| 20260902130817 | 78 | 170 | 1.0 | 2.0 | 0.00 | 0.00 | 0.00 | 79 | 1016.6 |
| 20260902130721 | 78 | 170 | 1.0 | 2.0 | 0.00 | 0.00 | 0.00 | 79 | 1016.6 |
| 20260902130622 | 78 | 360 | 1.0 | 2.0 | 0.00 | 0.00 | 0.00 | 79 | 1016.6 |
| 20260902130522 | 78 | 360 | 1.0 | 2.0 | 0.00 | 0.00 | 0.00 | 79 | 1016.6 |
| 20260902130443 | 78 | 360 | 1.0 | 2.0 | 0.00 | 0.00 | 0.00 | 79 | 1016.6 |
| 20260902130341 | 78 | 170 | 1.0 | 2.0 | 0.00 | 0.00 | 0.00 | 79 | 1016.7 |
| 20260902130221 | 78 | 170 | 1.0 | 2.0 | 0.00 | 0.00 | 0.00 | 79 | 1016.6 |
| 20260902130122 | 78 | 170 | 1.0 | 2.0 | 0.00 | 0.00 | 0.00 | 79 | 1016.5 |
| 20260902130042 | 78 | 360 | 1.0 | 2.0 | 0.00 | 0.00 | 0.00 | 79 | 1016.6 |
| 20260902125925 | 78 | 360 | 1.0 | 2.0 | 0.00 | 0.00 | 0.00 | 79 | 1016.5 |
| 20260902125827 | 78 | 360 | 1.0 | 2.0 | 0.00 | 0.00 | 0.00 | 79 | 1016.6 |
| 20260902125726 | 78 | 360 | 1.0 | 2.0 | 0.00 | 0.00 | 0.00 | 79 | 1016.6 |
| 20260902125627 | 78 | 360 | 0.0 | 2.0 | 0.00 | 0.00 | 0.00 | 80 | 1016.5 |
| 20260902125528 | 78 | 360 | 0.0 | 1.0 | 0.00 | 0.00 | 0.00 | 80 | 1016.5 |
| 20260902125428 | 78 | 170 | 0.0 | 1.0 | 0.00 | 0.00 | 0.00 | 80 | 1016.6 |
| 20260902125329 | 77 | 360 | 0.0 | 1.0 | 0.00 | 0.00 | 0.00 | 80 | 1016.6 |
| 20260902125233 | 77 | 170 | 0.0 | 0.0 | 0.00 | 0.00 | 0.00 | 80 | 1016.5 |
| 20260902125132 | 77 | 360 | 0.0 | 0.0 | 0.00 | 0.00 | 0.00 | 80 | 1016.6 |
| 20260902125033 | 77 | 360 | 0.0 | 0.0 | 0.00 | 0.00 | 0.00 | 81 | 1016.5 |
| 20260902124953 | 77 | 170 | 0.0 | 0.0 | 0.00 | 0.00 | 0.00 | 81 | 1016.5 |
| 20260902124832 | 77 | 360 | 0.0 | 0.0 | 0.00 | 0.00 | 0.00 | 80 | 1016.5 |
| 20260902124753 | 77 | 360 | 0.0 | 0.0 | 0.00 | 0.00 | 0.00 | 80 | 1016.4 |
| 20260902124654 | 77 | 360 | 0.0 | 0.0 | 0.00 | 0.00 | 0.00 | 80 | 1016.5 |
| 20260902124533 | 77 | 360 | 0.0 | 0.0 | 0.00 | 0.00 | 0.00 | 80 | 1016.5 |
| 20260902124417 | 77 | 360 | 0.0 | 0.0 | 0.00 | 0.00 | 0.00 | 80 | 1016.4 |
| 20260902124318 | 77 | 171 | 0.0 | 0.0 | 0.00 | 0.00 | 0.00 | 80 | 1016.4 |
| 20260902124218 | 76 | 360 | 0.0 | 0.0 | 0.00 | 0.00 | 0.00 | 80 | 1016.4 |
| 20260902124120 | 76 | 360 | 0.0 | 0.0 | 0.00 | 0.00 | 0.00 | 80 | 1016.4 |
| 20260902124021 | 76 | 360 | 0.0 | 0.0 | 0.00 | 0.00 | 0.00 | 80 | 1016.4 |
| 20260902123921 | 76 | 360 | 0.0 | 0.0 | 0.00 | 0.00 | 0.00 | 80 | 1016.3 |
| 20260902123825 | 76 | 360 | 0.0 | 0.0 | 0.00 | 0.00 | 0.00 | 80 | 1016.3 |
| 20260902123725 | 76 | 360 | 0.0 | 0.0 | 0.00 | 0.00 | 0.00 | 80 | 1016.4 |
| 20260902123626 | 76 | 170 | 0.0 | 0.0 | 0.00 | 0.00 | 0.00 | 80 | 1016.3 |
| 20260902123526 | 76 | 360 | 0.0 | 0.0 | 0.00 | 0.00 | 0.00 | 80 | 1016.4 |
| 20260902123426 | 76 | 360 | 0.0 | 0.0 | 0.00 | 0.00 | 0.00 | 80 | 1016.4 |
| 20260902123327 | 76 | 360 | 0.0 | 0.0 | 0.00 | 0.00 | 0.00 | 80 | 1016.3 |
| 20260902123248 | 76 | 360 | 0.0 | 0.0 | 0.00 | 0.00 | 0.00 | 80 | 1016.4 |
| 20260902123148 | 76 | 360 | 0.0 | 0.0 | 0.00 | 0.00 | 0.00 | 80 | 1016.4 |
| 20260902123053 | 76 | 360 | 0.0 | 0.0 | 0.00 | 0.00 | 0.00 | 81 | 1016.3 |
| 20260902122932 | 76 | 360 | 0.0 | 0.0 | 0.00 | 0.00 | 0.00 | 81 | 1016.3 |
| 20260902122834 | 76 | 360 | 0.0 | 0.0 | 0.00 | 0.00 | 0.00 | 81 | 1016.2 |
| 20260902122734 | 76 | 360 | 0.0 | 0.0 | 0.00 | 0.00 | 0.00 | 81 | 1016.1 |
| 20260902122635 | 76 | 170 | 0.0 | 0.0 | 0.00 | 0.00 | 0.00 | 80 | 1016.2 |
| 20260902122516 | 76 | 170 | 0.0 | 0.0 | 0.00 | 0.00 | 0.00 | 80 | 1016.2 |
| 20260902122419 | 76 | 170 | 0.0 | 0.0 | 0.00 | 0.00 | 0.00 | 80 | 1016.2 |
| 20260902122321 | 76 | 170 | 0.0 | 0.0 | 0.00 | 0.00 | 0.00 | 80 | 1016.2 |
| 20260902122242 | 76 | 170 | 0.0 | 0.0 | 0.00 | 0.00 | 0.00 | 80 | 1016.2 |
| 20260902122121 | 76 | 170 | 0.0 | 0.0 | 0.00 | 0.00 | 0.00 | 80 | 1016.2 |
| 20260902122021 | 76 | 170 | 0.0 | 0.0 | 0.00 | 0.00 | 0.00 | 80 | 1016.2 |
| 20260902121922 | 76 | 170 | 0.0 | 0.0 | 0.00 | 0.00 | 0.00 | 80 | 1016.2 |
| 20260902121823 | 76 | 170 | 0.0 | 1.0 | 0.00 | 0.00 | 0.00 | 80 | 1016.1 |
| 20260902121728 | 76 | 170 | 0.0 | 1.0 | 0.00 | 0.00 | 0.00 | 80 | 1016.1 |
| 20260902121628 | 76 | 170 | 0.0 | 1.0 | 0.00 | 0.00 | 0.00 | 80 | 1016.1 |
| 20260902121528 | 76 | 170 | 0.0 | 1.0 | 0.00 | 0.00 | 0.00 | 80 | 1016.1 |
| 20260902121449 | 76 | 170 | 0.0 | 2.0 | 0.00 | 0.00 | 0.00 | 80 | 1016.1 |
| 20260902121329 | 76 | 170 | 0.0 | 2.0 | 0.00 | 0.00 | 0.00 | 80 | 1016.1 |
| 20260902121230 | 76 | 170 | 0.0 | 2.0 | 0.00 | 0.00 | 0.00 | 80 | 1016.1 |
| 20260902121131 | 76 | 170 | 0.0 | 2.0 | 0.00 | 0.00 | 0.00 | 80 | 1016.2 |
| 20260902121035 | 76 | 170 | 0.0 | 2.0 | 0.00 | 0.00 | 0.00 | 80 | 1016.1 |
| 20260902120936 | 76 | 360 | 0.0 | 2.0 | 0.00 | 0.00 | 0.00 | 80 | 1016.1 |
| 20260902120816 | 76 | 360 | 1.0 | 2.0 | 0.00 | 0.00 | 0.00 | 80 | 1016.1 |
| 20260902120716 | 76 | 360 | 1.0 | 2.0 | 0.00 | 0.00 | 0.00 | 80 | 1016.1 |
| 20260902120637 | 76 | 360 | 1.0 | 2.0 | 0.00 | 0.00 | 0.00 | 80 | 1016.1 |
| 20260902120517 | 76 | 360 | 0.0 | 2.0 | 0.00 | 0.00 | 0.00 | 80 | 1016.0 |
| 20260902120417 | 76 | 360 | 0.0 | 1.0 | 0.00 | 0.00 | 0.00 | 80 | 1016.1 |
| 20260902120322 | 76 | 360 | 0.0 | 0.0 | 0.00 | 0.00 | 0.00 | 80 | 1016.0 |
| 20260902120223 | 76 | 360 | 0.0 | 0.0 | 0.00 | 0.00 | 0.00 | 80 | 1016.1 |
| 20260902120123 | 76 | 170 | 0.0 | 0.0 | 0.00 | 0.00 | 0.00 | 80 | 1016.1 |
| 20260902120025 | 76 | 170 | 0.0 | 0.0 | 0.00 | 0.00 | 0.00 | 80 | 1016.1 |
| 20260902115926 | 76 | 170 | 0.0 | 0.0 | 0.00 | 0.00 | 0.00 | 81 | 1016.1 |
| 20260902115826 | 76 | 170 | 0.0 | 0.0 | 0.00 | 0.00 | 0.00 | 81 | 1016.1 |
| 20260902115730 | 76 | 170 | 0.0 | 0.0 | 0.00 | 0.00 | 0.00 | 81 | 1016.1 |
| 20260902115631 | 76 | 169 | 0.0 | 0.0 | 0.00 | 0.00 | 0.00 | 81 | 1016.1 |
| 20260902115530 | 76 | 360 | 0.0 | 0.0 | 0.00 | 0.00 | 0.00 | 81 | 1016.0 |
| 20260902115431 | 76 | 170 | 0.0 | 0.0 | 0.00 | 0.00 | 0.00 | 81 | 1016.1 |
| 20260902115332 | 76 | 360 | 0.0 | 0.0 | 0.00 | 0.00 | 0.00 | 81 | 1016.0 |
| 20260902115233 | 76 | 169 | 0.0 | 0.0 | 0.00 | 0.00 | 0.00 | 81 | 1016.1 |
| 20260902115134 | 76 | 360 | 0.0 | 0.0 | 0.00 | 0.00 | 0.00 | 81 | 1016.0 |
| 20260902115019 | 76 | 360 | 0.0 | 1.0 | 0.00 | 0.00 | 0.00 | 81 | 1016.1 |
| 20260902114920 | 76 | 360 | 0.0 | 1.0 | 0.00 | 0.00 | 0.00 | 81 | 1016.0 |
| 20260902114822 | 76 | 360 | 0.0 | 1.0 | 0.00 | 0.00 | 0.00 | 81 | 1016.0 |
| 20260902114723 | 76 | 360 | 0.0 | 1.0 | 0.00 | 0.00 | 0.00 | 81 | 1016.0 |
| 20260902114621 | 76 | 360 | 0.0 | 1.0 | 0.00 | 0.00 | 0.00 | 81 | 1016.1 |
| 20260902114542 | 76 | 360 | 0.0 | 1.0 | 0.00 | 0.00 | 0.00 | 81 | 1016.0 |
| 20260902114421 | 76 | 360 | 0.0 | 1.0 | 0.00 | 0.00 | 0.00 | 81 | 1016.0 |
| 20260902114325 | 76 | 161 | 0.0 | 1.0 | 0.00 | 0.00 | 0.00 | 81 | 1016.0 |
| 20260902114226 | 76 | 161 | 0.0 | 2.0 | 0.00 | 0.00 | 0.00 | 81 | 1015.9 |
| 20260902114126 | 76 | 360 | 0.0 | 2.0 | 0.00 | 0.00 | 0.00 | 81 | 1016.0 |
| 20260902114028 | 76 | 360 | 0.0 | 2.0 | 0.00 | 0.00 | 0.00 | 81 | 1015.9 |
| 20260902113929 | 76 | 360 | 0.0 | 2.0 | 0.00 | 0.00 | 0.00 | 81 | 1016.0 |
| 20260902113829 | 76 | 360 | 0.0 | 2.0 | 0.00 | 0.00 | 0.00 | 81 | 1016.0 |
| 20260902113729 | 76 | 161 | 0.0 | 2.0 | 0.00 | 0.00 | 0.00 | 81 | 1016.1 |
| 20260902113635 | 76 | 161 | 0.0 | 2.0 | 0.00 | 0.00 | 0.00 | 81 | 1016.1 |
| 20260902113535 | 76 | 161 | 1.0 | 2.0 | 0.00 | 0.00 | 0.00 | 81 | 1016.0 |
| 20260902113416 | 76 | 360 | 1.0 | 2.0 | 0.00 | 0.00 | 0.00 | 81 | 1016.0 |
| 20260902113316 | 76 | 360 | 0.0 | 2.0 | 0.00 | 0.00 | 0.00 | 81 | 1016.1 |
| 20260902113217 | 76 | 360 | 0.0 | 2.0 | 0.00 | 0.00 | 0.00 | 81 | 1016.0 |
| 20260902113117 | 76 | 360 | 0.0 | 2.0 | 0.00 | 0.00 | 0.00 | 80 | 1016.1 |
| 20260902113022 | 76 | 360 | 0.0 | 2.0 | 0.00 | 0.00 | 0.00 | 80 | 1016.0 |
| 20260902112922 | 76 | 360 | 0.0 | 2.0 | 0.00 | 0.00 | 0.00 | 80 | 1016.0 |
| 20260902112824 | 76 | 360 | 1.0 | 2.0 | 0.00 | 0.00 | 0.00 | 80 | 1016.0 |
| 20260902112723 | 76 | 360 | 1.0 | 2.0 | 0.00 | 0.00 | 0.00 | 80 | 1016.0 |
| 20260902112624 | 76 | 360 | 0.0 | 2.0 | 0.00 | 0.00 | 0.00 | 80 | 1016.0 |
| 20260902112524 | 76 | 360 | 0.0 | 0.0 | 0.00 | 0.00 | 0.00 | 80 | 1016.0 |
| 20260902112425 | 76 | 161 | 0.0 | 0.0 | 0.00 | 0.00 | 0.00 | 80 | 1016.0 |
| 20260902112329 | 76 | 161 | 0.0 | 0.0 | 0.00 | 0.00 | 0.00 | 80 | 1016.0 |
| 20260902112231 | 76 | 161 | 0.0 | 0.0 | 0.00 | 0.00 | 0.00 | 80 | 1016.0 |
| 20260902112132 | 76 | 161 | 0.0 | 0.0 | 0.00 | 0.00 | 0.00 | 80 | 1016.0 |
| 20260902112032 | 76 | 161 | 0.0 | 1.0 | 0.00 | 0.00 | 0.00 | 80 | 1016.1 |
| 20260902111933 | 76 | 161 | 0.0 | 1.0 | 0.00 | 0.00 | 0.00 | 80 | 1016.1 |
| 20260902111834 | 76 | 161 | 0.0 | 1.0 | 0.00 | 0.00 | 0.00 | 80 | 1016.0 |
| 20260902111719 | 76 | 161 | 0.0 | 1.0 | 0.00 | 0.00 | 0.00 | 80 | 1016.1 |
| 20260902111620 | 76 | 161 | 0.0 | 1.0 | 0.00 | 0.00 | 0.00 | 80 | 1016.0 |
| 20260902111520 | 76 | 161 | 0.0 | 1.0 | 0.00 | 0.00 | 0.00 | 80 | 1016.0 |
| 20260902111420 | 76 | 161 | 0.0 | 1.0 | 0.00 | 0.00 | 0.00 | 80 | 1016.0 |
| 20260902111321 | 76 | 360 | 0.0 | 1.0 | 0.00 | 0.00 | 0.00 | 80 | 1016.0 |
| 20260902111222 | 76 | 360 | 0.0 | 1.0 | 0.00 | 0.00 | 0.00 | 80 | 1016.0 |
| 20260902111143 | 76 | 161 | 0.0 | 1.0 | 0.00 | 0.00 | 0.00 | 80 | 1016.0 |
| 20260902111027 | 76 | 161 | 0.0 | 1.0 | 0.00 | 0.00 | 0.00 | 80 | 1015.9 |
| 20260902110948 | 76 | 161 | 0.0 | 1.0 | 0.00 | 0.00 | 0.00 | 80 | 1016.0 |
| 20260902110827 | 76 | 360 | 0.0 | 1.0 | 0.00 | 0.00 | 0.00 | 80 | 1016.0 |
| 20260902110727 | 76 | 360 | 0.0 | 1.0 | 0.00 | 0.00 | 0.00 | 80 | 1015.9 |
| 20260902110627 | 76 | 360 | 0.0 | 1.0 | 0.00 | 0.00 | 0.00 | 80 | 1015.9 |
| 20260902110527 | 76 | 360 | 0.0 | 1.0 | 0.00 | 0.00 | 0.00 | 80 | 1015.9 |
| 20260902110427 | 76 | 161 | 0.0 | 0.0 | 0.00 | 0.00 | 0.00 | 80 | 1016.0 |
| 20260902110348 | 76 | 161 | 0.0 | 0.0 | 0.00 | 0.00 | 0.00 | 80 | 1015.9 |
| 20260902110231 | 76 | 161 | 0.0 | 0.0 | 0.00 | 0.00 | 0.00 | 79 | 1015.9 |
| 20260902110131 | 76 | 161 | 0.0 | 0.0 | 0.00 | 0.00 | 0.00 | 79 | 1016.0 |
| 20260902110031 | 76 | 161 | 0.0 | 0.0 | 0.00 | 0.00 | 0.00 | 79 | 1016.0 |
| 20260902105930 | 76 | 161 | 0.0 | 0.0 | 0.00 | 0.00 | 0.00 | 79 | 1015.9 |
| 20260902105831 | 76 | 161 | 0.0 | 0.0 | 0.00 | 0.00 | 0.00 | 79 | 1016.0 |
| 20260902105730 | 77 | 161 | 0.0 | 0.0 | 0.00 | 0.00 | 0.00 | 79 | 1015.9 |
| 20260902105651 | 77 | 161 | 0.0 | 0.0 | 0.00 | 0.00 | 0.00 | 79 | 1015.9 |
| 20260902105530 | 77 | 161 | 0.0 | 0.0 | 0.00 | 0.00 | 0.00 | 79 | 1015.9 |
| 20260902105435 | 77 | 161 | 0.0 | 0.0 | 0.00 | 0.00 | 0.00 | 79 | 1015.9 |
| 20260902105316 | 77 | 161 | 0.0 | 0.0 | 0.00 | 0.00 | 0.00 | 79 | 1015.9 |
| 20260902105217 | 77 | 161 | 0.0 | 0.0 | 0.00 | 0.00 | 0.00 | 79 | 1015.9 |
| 20260902105117 | 77 | 161 | 0.0 | 1.0 | 0.00 | 0.00 | 0.00 | 79 | 1015.9 |
| 20260902105018 | 77 | 161 | 0.0 | 2.0 | 0.00 | 0.00 | 0.00 | 79 | 1015.9 |
| 20260902104918 | 77 | 161 | 0.0 | 2.0 | 0.00 | 0.00 | 0.00 | 79 | 1015.9 |
| 20260902104823 | 77 | 161 | 0.0 | 2.0 | 0.00 | 0.00 | 0.00 | 79 | 1016.0 |
| 20260902104723 | 77 | 360 | 0.0 | 2.0 | 0.00 | 0.00 | 0.00 | 79 | 1016.0 |
| 20260902104623 | 77 | 360 | 0.0 | 2.0 | 0.00 | 0.00 | 0.00 | 79 | 1016.0 |
| 20260902104542 | 77 | 161 | 0.0 | 2.0 | 0.00 | 0.00 | 0.00 | 79 | 1016.0 |
| 20260902104423 | 77 | 161 | 0.0 | 2.0 | 0.00 | 0.00 | 0.00 | 79 | 1016.0 |
| 20260902104323 | 77 | 161 | 1.0 | 2.0 | 0.00 | 0.00 | 0.00 | 79 | 1016.0 |
| 20260902104244 | 77 | 161 | 1.0 | 2.0 | 0.00 | 0.00 | 0.00 | 79 | 1016.0 |
| 20260902104121 | 77 | 161 | 0.0 | 2.0 | 0.00 | 0.00 | 0.00 | 79 | 1016.0 |
| 20260902104026 | 77 | 161 | 0.0 | 0.0 | 0.00 | 0.00 | 0.00 | 79 | 1015.9 |
| 20260902103926 | 77 | 161 | 0.0 | 0.0 | 0.00 | 0.00 | 0.00 | 79 | 1015.9 |
| 20260902103827 | 77 | 161 | 0.0 | 0.0 | 0.00 | 0.00 | 0.00 | 79 | 1015.9 |
| 20260902103728 | 77 | 161 | 0.0 | 0.0 | 0.00 | 0.00 | 0.00 | 79 | 1015.9 |
| 20260902103629 | 77 | 161 | 0.0 | 0.0 | 0.00 | 0.00 | 0.00 | 79 | 1015.9 |
| 20260902103531 | 77 | 161 | 0.0 | 0.0 | 0.00 | 0.00 | 0.00 | 79 | 1016.0 |
| 20260902103416 | 77 | 161 | 0.0 | 0.0 | 0.00 | 0.00 | 0.00 | 79 | 1015.9 |
| 20260902103317 | 77 | 161 | 0.0 | 0.0 | 0.00 | 0.00 | 0.00 | 79 | 1015.9 |
| 20260902103217 | 77 | 161 | 0.0 | 0.0 | 0.00 | 0.00 | 0.00 | 79 | 1015.9 |
| 20260902103119 | 77 | 161 | 0.0 | 0.0 | 0.00 | 0.00 | 0.00 | 79 | 1015.9 |
| 20260902103020 | 77 | 161 | 0.0 | 0.0 | 0.00 | 0.00 | 0.00 | 79 | 1015.9 |
| 20260902102920 | 77 | 161 | 0.0 | 0.0 | 0.00 | 0.00 | 0.00 | 79 | 1015.9 |
| 20260902102822 | 77 | 161 | 0.0 | 0.0 | 0.00 | 0.00 | 0.00 | 79 | 1015.9 |
| 20260902102725 | 77 | 161 | 0.0 | 0.0 | 0.00 | 0.00 | 0.00 | 79 | 1016.0 |
| 20260902102626 | 77 | 161 | 0.0 | 0.0 | 0.00 | 0.00 | 0.00 | 79 | 1015.9 |
| 20260902102528 | 77 | 161 | 0.0 | 0.0 | 0.00 | 0.00 | 0.00 | 79 | 1015.9 |
| 20260902102448 | 77 | 360 | 0.0 | 0.0 | 0.00 | 0.00 | 0.00 | 79 | 1015.9 |
| 20260902102327 | 77 | 161 | 0.0 | 0.0 | 0.00 | 0.00 | 0.00 | 79 | 1015.9 |
| 20260902102227 | 77 | 161 | 0.0 | 0.0 | 0.00 | 0.00 | 0.00 | 78 | 1015.9 |
| 20260902102128 | 77 | 161 | 0.0 | 0.0 | 0.00 | 0.00 | 0.00 | 78 | 1016.0 |
| 20260902102032 | 77 | 161 | 0.0 | 0.0 | 0.00 | 0.00 | 0.00 | 78 | 1016.0 |
| 20260902101933 | 77 | 360 | 0.0 | 1.0 | 0.00 | 0.00 | 0.00 | 78 | 1016.0 |
| 20260902101854 | 77 | 360 | 0.0 | 1.0 | 0.00 | 0.00 | 0.00 | 78 | 1016.0 |
| 20260902101753 | 77 | 360 | 0.0 | 1.0 | 0.00 | 0.00 | 0.00 | 78 | 1016.1 |
| 20260902101633 | 77 | 360 | 0.0 | 1.0 | 0.00 | 0.00 | 0.00 | 78 | 1016.0 |
| 20260902101532 | 78 | 161 | 0.0 | 1.0 | 0.00 | 0.00 | 0.00 | 78 | 1016.0 |
| 20260902101433 | 78 | 161 | 0.0 | 1.0 | 0.00 | 0.00 | 0.00 | 78 | 1016.0 |
| 20260902101317 | 78 | 360 | 0.0 | 1.0 | 0.00 | 0.00 | 0.00 | 78 | 1016.0 |
| 20260902101239 | 78 | 360 | 0.0 | 1.0 | 0.00 | 0.00 | 0.00 | 77 | 1016.0 |
| 20260902101118 | 78 | 360 | 0.0 | 1.0 | 0.00 | 0.00 | 0.00 | 77 | 1016.0 |
| 20260902101020 | 78 | 360 | 0.0 | 0.0 | 0.00 | 0.00 | 0.00 | 77 | 1015.9 |
| 20260902100921 | 78 | 161 | 0.0 | 0.0 | 0.00 | 0.00 | 0.00 | 77 | 1016.0 |
| 20260902100821 | 78 | 360 | 0.0 | 0.0 | 0.00 | 0.00 | 0.00 | 77 | 1015.9 |
| 20260902100722 | 78 | 360 | 0.0 | 0.0 | 0.00 | 0.00 | 0.00 | 77 | 1015.9 |
| 20260902100625 | 78 | 161 | 0.0 | 0.0 | 0.00 | 0.00 | 0.00 | 77 | 1015.8 |
| 20260902100526 | 78 | 360 | 0.0 | 0.0 | 0.00 | 0.00 | 0.00 | 77 | 1015.8 |
| 20260902100426 | 78 | 360 | 0.0 | 0.0 | 0.00 | 0.00 | 0.00 | 77 | 1015.8 |
| 20260902100326 | 78 | 360 | 0.0 | 0.0 | 0.00 | 0.00 | 0.00 | 77 | 1015.8 |
| 20260902100247 | 78 | 360 | 0.0 | 0.0 | 0.00 | 0.00 | 0.00 | 77 | 1015.8 |
| 20260902100146 | 78 | 360 | 0.0 | 0.0 | 0.00 | 0.00 | 0.00 | 77 | 1015.8 |
| 20260902100026 | 78 | 360 | 0.0 | 0.0 | 0.00 | 0.00 | 0.00 | 77 | 1015.8 |
| 20260902095930 | 78 | 360 | 0.0 | 0.0 | 0.00 | 0.00 | 0.00 | 77 | 1015.8 |
| 20260902095833 | 78 | 360 | 0.0 | 0.0 | 0.00 | 0.00 | 0.00 | 77 | 1015.8 |
| 20260902095734 | 78 | 360 | 0.0 | 0.0 | 0.00 | 0.00 | 0.00 | 77 | 1015.8 |
| 20260902095635 | 78 | 360 | 0.0 | 2.0 | 0.00 | 0.00 | 0.00 | 77 | 1015.8 |
| 20260902095555 | 78 | 360 | 0.0 | 2.0 | 0.00 | 0.00 | 0.00 | 77 | 1015.9 |
| 20260902095435 | 78 | 161 | 0.0 | 2.0 | 0.00 | 0.00 | 0.00 | 77 | 1015.8 |
| 20260902095334 | 78 | 360 | 0.0 | 2.0 | 0.00 | 0.00 | 0.00 | 77 | 1015.8 |
| 20260902095240 | 78 | 360 | 0.0 | 2.0 | 0.00 | 0.00 | 0.00 | 77 | 1015.8 |
| 20260902095116 | 78 | 360 | 0.0 | 2.0 | 0.00 | 0.00 | 0.00 | 77 | 1015.8 |
| 20260902095017 | 78 | 360 | 0.0 | 2.0 | 0.00 | 0.00 | 0.00 | 77 | 1015.8 |
| 20260902094917 | 78 | 360 | 0.0 | 2.0 | 0.00 | 0.00 | 0.00 | 77 | 1015.8 |
| 20260902094839 | 78 | 360 | 0.0 | 2.0 | 0.00 | 0.00 | 0.00 | 77 | 1015.8 |
| 20260902094717 | 78 | 161 | 0.0 | 2.0 | 0.00 | 0.00 | 0.00 | 76 | 1015.8 |
| 20260902094637 | 78 | 161 | 1.0 | 2.0 | 0.00 | 0.00 | 0.00 | 76 | 1015.8 |
| 20260902094517 | 78 | 161 | 1.0 | 2.0 | 0.00 | 0.00 | 0.00 | 76 | 1015.8 |
| 20260902094420 | 79 | 161 | 1.0 | 2.0 | 0.00 | 0.00 | 0.00 | 76 | 1015.8 |
| 20260902094321 | 79 | 161 | 1.0 | 2.0 | 0.00 | 0.00 | 0.00 | 76 | 1015.8 |